| time (UTC) | temp F | wind direction | speed MPH | gust MPH | rain 1hr in | rain 24hr in | rain mn in | humidity % | barometer mb |
| 20260905181002 | 63 | 298 | 8.0 | 12.0 | 0.00 | 0.00 | 0.00 | 66 | |
| 20260905180902 | 63 | 298 | 8.0 | 12.0 | 0.00 | 0.00 | 0.00 | 65 | |
| 20260905180803 | 63 | 298 | 9.0 | 12.0 | 0.00 | 0.00 | 0.00 | 66 | |
| 20260905180702 | 63 | 297 | 9.0 | 13.0 | 0.00 | 0.00 | 0.00 | 65 | |
| 20260905180602 | 63 | 297 | 9.0 | 13.0 | 0.00 | 0.00 | 0.00 | 65 | |
| 20260905180524 | 64 | 296 | 9.0 | 13.0 | 0.00 | 0.00 | 0.00 | 65 | |
| 20260905180402 | 64 | 295 | 10.0 | 13.0 | 0.00 | 0.00 | 0.00 | 65 | |
| 20260905180302 | 64 | 294 | 10.0 | 13.0 | 0.00 | 0.00 | 0.00 | 65 | |
| 20260905180202 | 64 | 293 | 10.0 | 13.0 | 0.00 | 0.00 | 0.00 | 65 | |
| 20260905180003 | 64 | 292 | 9.0 | 13.0 | 0.00 | 0.00 | 0.00 | 64 | |
| 20260905175902 | 64 | 291 | 9.0 | 13.0 | 0.00 | 0.00 | 0.00 | 64 | |
| 20260905175803 | 64 | 290 | 8.0 | 13.0 | 0.00 | 0.00 | 0.00 | 64 | |
| 20260905175703 | 64 | 288 | 8.0 | 13.0 | 0.00 | 0.00 | 0.00 | 64 | |
| 20260905175603 | 64 | 285 | 7.0 | 13.0 | 0.00 | 0.00 | 0.00 | 63 | |
| 20260905175503 | 64 | 283 | 7.0 | 13.0 | 0.00 | 0.00 | 0.00 | 65 | |
| 20260905175423 | 64 | 282 | 7.0 | 13.0 | 0.00 | 0.00 | 0.00 | 65 | |
| 20260905175324 | 64 | 281 | 7.0 | 12.0 | 0.00 | 0.00 | 0.00 | 64 | |
| 20260905175223 | 64 | 279 | 7.0 | 12.0 | 0.00 | 0.00 | 0.00 | 64 | |
| 20260905175102 | 64 | 276 | 6.0 | 12.0 | 0.00 | 0.00 | 0.00 | 64 | |
| 20260905175002 | 64 | 274 | 6.0 | 9.0 | 0.00 | 0.00 | 0.00 | 65 | |
| 20260905174904 | 64 | 274 | 6.0 | 9.0 | 0.00 | 0.00 | 0.00 | 64 | |
| 20260905174803 | 64 | 276 | 6.0 | 9.0 | 0.00 | 0.00 | 0.00 | 64 | |
| 20260905174702 | 64 | 277 | 7.0 | 10.0 | 0.00 | 0.00 | 0.00 | 64 | |
| 20260905174603 | 64 | 278 | 7.0 | 10.0 | 0.00 | 0.00 | 0.00 | 63 | |
| 20260905174502 | 64 | 279 | 7.0 | 11.0 | 0.00 | 0.00 | 0.00 | 64 | |
| 20260905174403 | 64 | 280 | 7.0 | 11.0 | 0.00 | 0.00 | 0.00 | 63 | |
| 20260905174303 | 65 | 282 | 7.0 | 11.0 | 0.00 | 0.00 | 0.00 | 64 | |
| 20260905174224 | 65 | 283 | 7.0 | 13.0 | 0.00 | 0.00 | 0.00 | 64 | |
| 20260905174102 | 65 | 282 | 8.0 | 13.0 | 0.00 | 0.00 | 0.00 | 64 | |
| 20260905174003 | 65 | 282 | 8.0 | 13.0 | 0.00 | 0.00 | 0.00 | 63 | |
| 20260905173902 | 65 | 282 | 8.0 | 13.0 | 0.00 | 0.00 | 0.00 | 63 | |
| 20260905173824 | 65 | 282 | 8.0 | 13.0 | 0.00 | 0.00 | 0.00 | 63 | |
| 20260905173723 | 65 | 283 | 8.0 | 13.0 | 0.00 | 0.00 | 0.00 | 63 | |
| 20260905173602 | 65 | 283 | 8.0 | 13.0 | 0.00 | 0.00 | 0.00 | 63 | |
| 20260905173523 | 65 | 283 | 8.0 | 13.0 | 0.00 | 0.00 | 0.00 | 63 | |
| 20260905173402 | 65 | 281 | 9.0 | 13.0 | 0.00 | 0.00 | 0.00 | 63 | |
| 20260905173303 | 65 | 280 | 9.0 | 13.0 | 0.00 | 0.00 | 0.00 | 63 | |
| 20260905173223 | 65 | 279 | 9.0 | 13.0 | 0.00 | 0.00 | 0.00 | 63 | |
| 20260905173103 | 65 | 278 | 9.0 | 13.0 | 0.00 | 0.00 | 0.00 | 63 | |
| 20260905173004 | 65 | 276 | 9.0 | 14.0 | 0.00 | 0.00 | 0.00 | 63 | |
| 20260905172903 | 65 | 276 | 10.0 | 16.0 | 0.00 | 0.00 | 0.00 | 63 | |
| 20260905172803 | 65 | 274 | 9.0 | 16.0 | 0.00 | 0.00 | 0.00 | 63 | |
| 20260905172702 | 65 | 271 | 10.0 | 16.0 | 0.00 | 0.00 | 0.00 | 63 | |
| 20260905172602 | 65 | 271 | 10.0 | 16.0 | 0.00 | 0.00 | 0.00 | 63 | |
| 20260905172503 | 65 | 272 | 10.0 | 16.0 | 0.00 | 0.00 | 0.00 | 62 | |
| 20260905172403 | 65 | 271 | 10.0 | 16.0 | 0.00 | 0.00 | 0.00 | 62 | |
| 20260905172305 | 65 | 270 | 10.0 | 16.0 | 0.00 | 0.00 | 0.00 | 62 | |
| 20260905172202 | 65 | 271 | 9.0 | 16.0 | 0.00 | 0.00 | 0.00 | 62 | |
| 20260905172103 | 65 | 272 | 9.0 | 16.0 | 0.00 | 0.00 | 0.00 | 62 | |
| 20260905172002 | 65 | 271 | 9.0 | 16.0 | 0.00 | 0.00 | 0.00 | 63 | |
| 20260905171903 | 65 | 272 | 9.0 | 13.0 | 0.00 | 0.00 | 0.00 | 63 | |
| 20260905171803 | 65 | 274 | 9.0 | 13.0 | 0.00 | 0.00 | 0.00 | 63 | |
| 20260905171702 | 65 | 277 | 8.0 | 13.0 | 0.00 | 0.00 | 0.00 | 63 | |
| 20260905171603 | 65 | 277 | 8.0 | 13.0 | 0.00 | 0.00 | 0.00 | 63 | |
| 20260905171502 | 65 | 276 | 8.0 | 13.0 | 0.00 | 0.00 | 0.00 | 62 | |
| 20260905171402 | 65 | 275 | 8.0 | 13.0 | 0.00 | 0.00 | 0.00 | 62 | |
| 20260905171303 | 66 | 274 | 7.0 | 13.0 | 0.00 | 0.00 | 0.00 | 62 | |
| 20260905171202 | 66 | 272 | 7.0 | 12.0 | 0.00 | 0.00 | 0.00 | 63 | |
| 20260905171102 | 66 | 270 | 7.0 | 10.0 | 0.00 | 0.00 | 0.00 | 63 | |
| 20260905171002 | 66 | 270 | 7.0 | 12.0 | 0.00 | 0.00 | 0.00 | 62 | |
| 20260905170902 | 66 | 269 | 7.0 | 12.0 | 0.00 | 0.00 | 0.00 | 62 | |
| 20260905170803 | 66 | 268 | 7.0 | 12.0 | 0.00 | 0.00 | 0.00 | 62 | |
| 20260905170703 | 66 | 267 | 7.0 | 12.0 | 0.00 | 0.00 | 0.00 | 62 | |
| 20260905170623 | 66 | 268 | 7.0 | 12.0 | 0.00 | 0.00 | 0.00 | 62 | |
| 20260905170524 | 66 | 270 | 8.0 | 12.0 | 0.00 | 0.00 | 0.00 | 62 | |
| 20260905170423 | 66 | 274 | 8.0 | 12.0 | 0.00 | 0.00 | 0.00 | 63 | |
| 20260905170303 | 66 | 278 | 8.0 | 12.0 | 0.00 | 0.00 | 0.00 | 62 | |
| 20260905170204 | 66 | 280 | 8.0 | 12.0 | 0.00 | 0.00 | 0.00 | 61 | |
| 20260905170125 | 66 | 280 | 8.0 | 12.0 | 0.00 | 0.00 | 0.00 | 61 | |
| 20260905170002 | 66 | 283 | 8.0 | 12.0 | 0.00 | 0.00 | 0.00 | 61 | |
| 20260905165903 | 67 | 284 | 8.0 | 12.0 | 0.00 | 0.00 | 0.00 | 61 | |
| 20260905165802 | 66 | 284 | 8.0 | 12.0 | 0.00 | 0.00 | 0.00 | 62 | |
| 20260905165703 | 67 | 285 | 7.0 | 12.0 | 0.00 | 0.00 | 0.00 | 61 | |
| 20260905165624 | 67 | 284 | 7.0 | 12.0 | 0.00 | 0.00 | 0.00 | 61 | |
| 20260905165523 | 67 | 283 | 7.0 | 12.0 | 0.00 | 0.00 | 0.00 | 62 | |
| 20260905165403 | 67 | 281 | 7.0 | 11.0 | 0.00 | 0.00 | 0.00 | 63 | |
| 20260905165306 | 66 | 283 | 7.0 | 11.0 | 0.00 | 0.00 | 0.00 | 63 | |
| 20260905165202 | 66 | 282 | 7.0 | 13.0 | 0.00 | 0.00 | 0.00 | 63 | |
| 20260905165102 | 66 | 284 | 7.0 | 13.0 | 0.00 | 0.00 | 0.00 | 64 | |
| 20260905165003 | 66 | 284 | 8.0 | 13.0 | 0.00 | 0.00 | 0.00 | 63 | |
| 20260905164902 | 66 | 283 | 8.0 | 13.0 | 0.00 | 0.00 | 0.00 | 64 | |
| 20260905164803 | 66 | 281 | 8.0 | 13.0 | 0.00 | 0.00 | 0.00 | 64 | |
| 20260905164702 | 65 | 278 | 8.0 | 13.0 | 0.00 | 0.00 | 0.00 | 64 | |
| 20260905164603 | 65 | 277 | 9.0 | 13.0 | 0.00 | 0.00 | 0.00 | 63 | |
| 20260905164504 | 65 | 277 | 9.0 | 13.0 | 0.00 | 0.00 | 0.00 | 63 | |
| 20260905164402 | 65 | 278 | 9.0 | 14.0 | 0.00 | 0.00 | 0.00 | 63 | |
| 20260905164302 | 65 | 277 | 9.0 | 14.0 | 0.00 | 0.00 | 0.00 | 63 | |
| 20260905164202 | 65 | 277 | 10.0 | 14.0 | 0.00 | 0.00 | 0.00 | 62 | |
| 20260905164102 | 65 | 278 | 10.0 | 14.0 | 0.00 | 0.00 | 0.00 | 62 | |
| 20260905164002 | 65 | 279 | 10.0 | 14.0 | 0.00 | 0.00 | 0.00 | 62 | |
| 20260905163903 | 65 | 280 | 11.0 | 14.0 | 0.00 | 0.00 | 0.00 | 62 | |
| 20260905163803 | 65 | 280 | 10.0 | 15.0 | 0.00 | 0.00 | 0.00 | 62 | |
| 20260905163702 | 65 | 281 | 10.0 | 15.0 | 0.00 | 0.00 | 0.00 | 62 | |
| 20260905163602 | 65 | 283 | 10.0 | 15.0 | 0.00 | 0.00 | 0.00 | 61 | |
| 20260905163503 | 65 | 283 | 9.0 | 15.0 | 0.00 | 0.00 | 0.00 | 61 | |
| 20260905163402 | 65 | 283 | 9.0 | 15.0 | 0.00 | 0.00 | 0.00 | 61 | |
| 20260905163323 | 65 | 283 | 9.0 | 15.0 | 0.00 | 0.00 | 0.00 | 61 | |
| 20260905163202 | 66 | 284 | 9.0 | 15.0 | 0.00 | 0.00 | 0.00 | 61 | |
| 20260905163102 | 66 | 286 | 9.0 | 15.0 | 0.00 | 0.00 | 0.00 | 62 | |
| 20260905163024 | 66 | 285 | 9.0 | 15.0 | 0.00 | 0.00 | 0.00 | 62 | |
| 20260905162924 | 66 | 285 | 9.0 | 16.0 | 0.00 | 0.00 | 0.00 | 62 | |
| 20260905162803 | 65 | 289 | 9.0 | 16.0 | 0.00 | 0.00 | 0.00 | 64 | |
| 20260905162703 | 65 | 291 | 9.0 | 16.0 | 0.00 | 0.00 | 0.00 | 63 | |
| 20260905162624 | 65 | 291 | 9.0 | 16.0 | 0.00 | 0.00 | 0.00 | 63 | |
| 20260905162502 | 65 | 291 | 10.0 | 18.0 | 0.00 | 0.00 | 0.00 | 63 | |
| 20260905162403 | 65 | 291 | 11.0 | 18.0 | 0.00 | 0.00 | 0.00 | 63 | |
| 20260905162305 | 65 | 290 | 11.0 | 18.0 | 0.00 | 0.00 | 0.00 | 63 | |
| 20260905162203 | 65 | 291 | 12.0 | 18.0 | 0.00 | 0.00 | 0.00 | 63 | |
| 20260905162103 | 65 | 291 | 12.0 | 18.0 | 0.00 | 0.00 | 0.00 | 63 | |
| 20260905162003 | 65 | 292 | 12.0 | 18.0 | 0.00 | 0.00 | 0.00 | 63 | |
| 20260905161903 | 65 | 292 | 12.0 | 18.0 | 0.00 | 0.00 | 0.00 | 63 | |
| 20260905161803 | 65 | 294 | 12.0 | 18.0 | 0.00 | 0.00 | 0.00 | 63 | |
| 20260905161703 | 65 | 295 | 13.0 | 18.0 | 0.00 | 0.00 | 0.00 | 62 | |
| 20260905161623 | 65 | 296 | 13.0 | 18.0 | 0.00 | 0.00 | 0.00 | 62 | |
| 20260905161502 | 65 | 297 | 12.0 | 16.0 | 0.00 | 0.00 | 0.00 | 62 | |
| 20260905161403 | 65 | 299 | 12.0 | 16.0 | 0.00 | 0.00 | 0.00 | 63 | |
| 20260905161302 | 65 | 300 | 12.0 | 16.0 | 0.00 | 0.00 | 0.00 | 63 | |
| 20260905161202 | 65 | 300 | 12.0 | 16.0 | 0.00 | 0.00 | 0.00 | 63 | |
| 20260905161103 | 65 | 300 | 12.0 | 18.0 | 0.00 | 0.00 | 0.00 | 63 | |
| 20260905161003 | 65 | 300 | 13.0 | 18.0 | 0.00 | 0.00 | 0.00 | 62 | |
| 20260905160924 | 65 | 300 | 13.0 | 19.0 | 0.00 | 0.00 | 0.00 | 62 | |
| 20260905160803 | 65 | 298 | 12.0 | 19.0 | 0.00 | 0.00 | 0.00 | 62 | |
| 20260905160703 | 65 | 296 | 12.0 | 19.0 | 0.00 | 0.00 | 0.00 | 62 | |
| 20260905160603 | 65 | 294 | 11.0 | 19.0 | 0.00 | 0.00 | 0.00 | 62 | |
| 20260905160502 | 65 | 292 | 11.0 | 19.0 | 0.00 | 0.00 | 0.00 | 61 | |
| 20260905160424 | 65 | 291 | 11.0 | 19.0 | 0.00 | 0.00 | 0.00 | 61 | |
| 20260905160303 | 66 | 291 | 10.0 | 19.0 | 0.00 | 0.00 | 0.00 | 61 | |
| 20260905160203 | 66 | 292 | 10.0 | 19.0 | 0.00 | 0.00 | 0.00 | 61 | |
| 20260905160024 | 66 | 293 | 9.0 | 19.0 | 0.00 | 0.00 | 0.00 | 61 | |
| 20260905155902 | 66 | 294 | 8.0 | 14.0 | 0.00 | 0.00 | 0.00 | 61 | |
| 20260905155802 | 66 | 295 | 8.0 | 14.0 | 0.00 | 0.00 | 0.00 | 63 | |
| 20260905155703 | 66 | 297 | 8.0 | 13.0 | 0.00 | 0.00 | 0.00 | 63 | |
| 20260905155604 | 66 | 300 | 9.0 | 13.0 | 0.00 | 0.00 | 0.00 | 63 | |
| 20260905155503 | 66 | 302 | 9.0 | 13.0 | 0.00 | 0.00 | 0.00 | 63 | |
| 20260905155403 | 65 | 302 | 9.0 | 13.0 | 0.00 | 0.00 | 0.00 | 63 | |
| 20260905155306 | 65 | 302 | 9.0 | 13.0 | 0.00 | 0.00 | 0.00 | 62 | |
| 20260905155202 | 65 | 302 | 9.0 | 13.0 | 0.00 | 0.00 | 0.00 | 63 | |
| 20260905155104 | 65 | 302 | 10.0 | 13.0 | 0.00 | 0.00 | 0.00 | 63 | |
| 20260905155002 | 65 | 300 | 10.0 | 13.0 | 0.00 | 0.00 | 0.00 | 63 | |
| 20260905154902 | 65 | 300 | 10.0 | 13.0 | 0.00 | 0.00 | 0.00 | 64 | |
| 20260905154824 | 65 | 299 | 10.0 | 14.0 | 0.00 | 0.00 | 0.00 | 64 | |
| 20260905154703 | 65 | 298 | 10.0 | 14.0 | 0.00 | 0.00 | 0.00 | 64 | |
| 20260905154603 | 66 | 297 | 10.0 | 14.0 | 0.00 | 0.00 | 0.00 | 64 | |
| 20260905154502 | 66 | 296 | 10.0 | 14.0 | 0.00 | 0.00 | 0.00 | 63 | |
| 20260905154402 | 66 | 294 | 10.0 | 14.0 | 0.00 | 0.00 | 0.00 | 63 | |
| 20260905154303 | 66 | 293 | 10.0 | 14.0 | 0.00 | 0.00 | 0.00 | 62 | |
| 20260905154204 | 66 | 292 | 10.0 | 14.0 | 0.00 | 0.00 | 0.00 | 63 | |
| 20260905154102 | 66 | 289 | 10.0 | 14.0 | 0.00 | 0.00 | 0.00 | 63 | |
| 20260905154023 | 66 | 288 | 10.0 | 14.0 | 0.00 | 0.00 | 0.00 | 63 | |
| 20260905153903 | 66 | 287 | 10.0 | 14.0 | 0.00 | 0.00 | 0.00 | 64 | |
| 20260905153803 | 66 | 286 | 9.0 | 14.0 | 0.00 | 0.00 | 0.00 | 64 | |
| 20260905153703 | 66 | 283 | 9.0 | 14.0 | 0.00 | 0.00 | 0.00 | 63 | |
| 20260905153603 | 66 | 283 | 10.0 | 14.0 | 0.00 | 0.00 | 0.00 | 63 | |
| 20260905153502 | 66 | 283 | 10.0 | 14.0 | 0.00 | 0.00 | 0.00 | 63 | |
| 20260905153403 | 66 | 284 | 10.0 | 14.0 | 0.00 | 0.00 | 0.00 | 63 | |
| 20260905153303 | 66 | 284 | 10.0 | 16.0 | 0.00 | 0.00 | 0.00 | 64 | |
| 20260905153224 | 66 | 284 | 10.0 | 16.0 | 0.00 | 0.00 | 0.00 | 64 | |
| 20260905153124 | 66 | 284 | 11.0 | 16.0 | 0.00 | 0.00 | 0.00 | 63 | |
| 20260905153003 | 66 | 287 | 11.0 | 16.0 | 0.00 | 0.00 | 0.00 | 62 | |
| 20260905152903 | 66 | 288 | 11.0 | 16.0 | 0.00 | 0.00 | 0.00 | 62 | |
| 20260905152803 | 66 | 290 | 11.0 | 16.0 | 0.00 | 0.00 | 0.00 | 63 | |
| 20260905152702 | 66 | 292 | 11.0 | 16.0 | 0.00 | 0.00 | 0.00 | 62 | |
| 20260905152603 | 67 | 292 | 11.0 | 16.0 | 0.00 | 0.00 | 0.00 | 61 | |
| 20260905152503 | 67 | 292 | 11.0 | 16.0 | 0.00 | 0.00 | 0.00 | 60 | |
| 20260905152403 | 67 | 295 | 11.0 | 16.0 | 0.00 | 0.00 | 0.00 | 61 | |
| 20260905152306 | 68 | 297 | 12.0 | 16.0 | 0.00 | 0.00 | 0.00 | 61 | |
| 20260905152203 | 68 | 299 | 12.0 | 16.0 | 0.00 | 0.00 | 0.00 | 63 | |
| 20260905152103 | 67 | 299 | 12.0 | 16.0 | 0.00 | 0.00 | 0.00 | 64 | |
| 20260905152003 | 67 | 299 | 12.0 | 18.0 | 0.00 | 0.00 | 0.00 | 62 | |
| 20260905151903 | 67 | 300 | 13.0 | 18.0 | 0.00 | 0.00 | 0.00 | 63 | |
| 20260905151803 | 67 | 301 | 14.0 | 22.0 | 0.00 | 0.00 | 0.00 | 63 | |
| 20260905151724 | 67 | 301 | 14.0 | 22.0 | 0.00 | 0.00 | 0.00 | 63 | |
| 20260905151602 | 66 | 302 | 14.0 | 22.0 | 0.00 | 0.00 | 0.00 | 63 | |
| 20260905151503 | 66 | 300 | 14.0 | 22.0 | 0.00 | 0.00 | 0.00 | 62 | |
| 20260905151403 | 66 | 299 | 14.0 | 22.0 | 0.00 | 0.00 | 0.00 | 63 | |
| 20260905151302 | 66 | 297 | 14.0 | 22.0 | 0.00 | 0.00 | 0.00 | 61 | |
| 20260905151203 | 66 | 296 | 13.0 | 22.0 | 0.00 | 0.00 | 0.00 | 62 | |
| 20260905151123 | 66 | 296 | 13.0 | 22.0 | 0.00 | 0.00 | 0.00 | 62 | |
| 20260905151003 | 66 | 294 | 13.0 | 22.0 | 0.00 | 0.00 | 0.00 | 61 | |
| 20260905150924 | 67 | 293 | 13.0 | 22.0 | 0.00 | 0.00 | 0.00 | 61 | |
| 20260905150803 | 67 | 290 | 13.0 | 19.0 | 0.00 | 0.00 | 0.00 | 61 | |
| 20260905150724 | 67 | 290 | 13.0 | 19.0 | 0.00 | 0.00 | 0.00 | 61 | |
| 20260905150602 | 67 | 287 | 13.0 | 19.0 | 0.00 | 0.00 | 0.00 | 63 | |
| 20260905150503 | 67 | 289 | 13.0 | 19.0 | 0.00 | 0.00 | 0.00 | 62 | |
| 20260905150402 | 66 | 290 | 14.0 | 19.0 | 0.00 | 0.00 | 0.00 | 61 | |
| 20260905150303 | 66 | 292 | 13.0 | 22.0 | 0.00 | 0.00 | 0.00 | 61 | |
| 20260905150203 | 66 | 293 | 13.0 | 22.0 | 0.00 | 0.00 | 0.00 | 61 | |
| 20260905150124 | 66 | 294 | 13.0 | 22.0 | 0.00 | 0.00 | 0.00 | 61 | |
| 20260905150003 | 66 | 294 | 13.0 | 22.0 | 0.00 | 0.00 | 0.00 | 62 | |
| 20260905145903 | 66 | 295 | 13.0 | 22.0 | 0.00 | 0.00 | 0.00 | 62 | |
| 20260905145803 | 66 | 297 | 13.0 | 22.0 | 0.00 | 0.00 | 0.00 | 63 | |
| 20260905145703 | 66 | 297 | 13.0 | 22.0 | 0.00 | 0.00 | 0.00 | 64 | |
| 20260905145603 | 66 | 299 | 13.0 | 22.0 | 0.00 | 0.00 | 0.00 | 63 | |
| 20260905145524 | 66 | 299 | 13.0 | 22.0 | 0.00 | 0.00 | 0.00 | 63 | |
| 20260905145403 | 66 | 299 | 13.0 | 22.0 | 0.00 | 0.00 | 0.00 | 65 | |
| 20260905145306 | 66 | 298 | 13.0 | 19.0 | 0.00 | 0.00 | 0.00 | 64 | |
| 20260905145223 | 65 | 298 | 13.0 | 19.0 | 0.00 | 0.00 | 0.00 | 64 | |
| 20260905145124 | 65 | 298 | 13.0 | 19.0 | 0.00 | 0.00 | 0.00 | 63 | |
| 20260905145003 | 66 | 300 | 13.0 | 19.0 | 0.00 | 0.00 | 0.00 | 63 | |
| 20260905144903 | 66 | 300 | 13.0 | 19.0 | 0.00 | 0.00 | 0.00 | 63 | |
| 20260905144802 | 66 | 298 | 12.0 | 19.0 | 0.00 | 0.00 | 0.00 | 63 | |
| 20260905144703 | 66 | 297 | 12.0 | 19.0 | 0.00 | 0.00 | 0.00 | 62 | |
| 20260905144603 | 66 | 294 | 12.0 | 19.0 | 0.00 | 0.00 | 0.00 | 63 | |
| 20260905144503 | 66 | 292 | 11.0 | 18.0 | 0.00 | 0.00 | 0.00 | 64 | |
| 20260905144403 | 66 | 290 | 11.0 | 16.0 | 0.00 | 0.00 | 0.00 | 63 | |
| 20260905144302 | 66 | 290 | 11.0 | 16.0 | 0.00 | 0.00 | 0.00 | 63 | |
| 20260905144203 | 66 | 289 | 11.0 | 16.0 | 0.00 | 0.00 | 0.00 | 64 | |
| 20260905144103 | 66 | 290 | 11.0 | 16.0 | 0.00 | 0.00 | 0.00 | 64 | |
| 20260905144024 | 66 | 289 | 11.0 | 15.0 | 0.00 | 0.00 | 0.00 | 64 | |
| 20260905143903 | 66 | 289 | 11.0 | 18.0 | 0.00 | 0.00 | 0.00 | 62 | |
| 20260905143802 | 66 | 289 | 11.0 | 18.0 | 0.00 | 0.00 | 0.00 | 63 | |
| 20260905143703 | 66 | 289 | 11.0 | 18.0 | 0.00 | 0.00 | 0.00 | 64 | |
| 20260905143603 | 66 | 289 | 11.0 | 18.0 | 0.00 | 0.00 | 0.00 | 63 | |
| 20260905143524 | 66 | 289 | 11.0 | 18.0 | 0.00 | 0.00 | 0.00 | 63 | |
| 20260905143403 | 66 | 290 | 11.0 | 18.0 | 0.00 | 0.00 | 0.00 | 64 | |
| 20260905143303 | 66 | 289 | 11.0 | 18.0 | 0.00 | 0.00 | 0.00 | 63 | |
| 20260905143203 | 66 | 287 | 11.0 | 18.0 | 0.00 | 0.00 | 0.00 | 63 | |
| 20260905143103 | 66 | 285 | 11.0 | 18.0 | 0.00 | 0.00 | 0.00 | 63 | |
| 20260905143003 | 66 | 284 | 10.0 | 18.0 | 0.00 | 0.00 | 0.00 | 62 | |
| 20260905142903 | 66 | 283 | 10.0 | 16.0 | 0.00 | 0.00 | 0.00 | 61 | |
| 20260905142803 | 66 | 283 | 10.0 | 16.0 | 0.00 | 0.00 | 0.00 | 62 | |
| 20260905142724 | 66 | 284 | 10.0 | 16.0 | 0.00 | 0.00 | 0.00 | 62 | |
| 20260905142623 | 66 | 286 | 10.0 | 15.0 | 0.00 | 0.00 | 0.00 | 62 | |
| 20260905142503 | 66 | 288 | 11.0 | 18.0 | 0.00 | 0.00 | 0.00 | 61 | |
| 20260905142403 | 66 | 290 | 11.0 | 18.0 | 0.00 | 0.00 | 0.00 | 61 | |
| 20260905142305 | 66 | 291 | 11.0 | 18.0 | 0.00 | 0.00 | 0.00 | 61 | |
| 20260905142203 | 66 | 292 | 12.0 | 20.0 | 0.00 | 0.00 | 0.00 | 61 | |
| 20260905142103 | 66 | 294 | 13.0 | 20.0 | 0.00 | 0.00 | 0.00 | 62 | |
| 20260905142003 | 66 | 296 | 14.0 | 20.0 | 0.00 | 0.00 | 0.00 | 62 | |
| 20260905141902 | 66 | 296 | 14.0 | 20.0 | 0.00 | 0.00 | 0.00 | 61 | |
| 20260905141803 | 66 | 295 | 14.0 | 20.0 | 0.00 | 0.00 | 0.00 | 62 | |
| 20260905141703 | 66 | 294 | 14.0 | 20.0 | 0.00 | 0.00 | 0.00 | 63 | |
| 20260905141603 | 66 | 293 | 14.0 | 20.0 | 0.00 | 0.00 | 0.00 | 63 | |
| 20260905141503 | 66 | 290 | 14.0 | 20.0 | 0.00 | 0.00 | 0.00 | 62 | |
| 20260905141403 | 66 | 289 | 14.0 | 20.0 | 0.00 | 0.00 | 0.00 | 62 | |
| 20260905141303 | 66 | 286 | 14.0 | 20.0 | 0.00 | 0.00 | 0.00 | 61 | |
| 20260905141203 | 66 | 284 | 13.0 | 20.0 | 0.00 | 0.00 | 0.00 | 61 | |
| 20260905141104 | 66 | 282 | 13.0 | 20.0 | 0.00 | 0.00 | 0.00 | 62 | |
| 20260905141003 | 66 | 278 | 12.0 | 19.0 | 0.00 | 0.00 | 0.00 | 61 | |
| 20260905140902 | 66 | 277 | 12.0 | 19.0 | 0.00 | 0.00 | 0.00 | 61 | |
| 20260905140803 | 66 | 277 | 12.0 | 20.0 | 0.00 | 0.00 | 0.00 | 61 | |
| 20260905140704 | 66 | 277 | 12.0 | 22.0 | 0.00 | 0.00 | 0.00 | 61 | |
| 20260905140603 | 66 | 278 | 12.0 | 22.0 | 0.00 | 0.00 | 0.00 | 60 | |
| 20260905140503 | 66 | 278 | 12.0 | 22.0 | 0.00 | 0.00 | 0.00 | 59 | |
| 20260905140403 | 66 | 277 | 12.0 | 22.0 | 0.00 | 0.00 | 0.00 | 59 | |
| 20260905140302 | 66 | 279 | 12.0 | 22.0 | 0.00 | 0.00 | 0.00 | 59 | |
| 20260905140203 | 66 | 281 | 12.0 | 22.0 | 0.00 | 0.00 | 0.00 | 59 | |
| 20260905140124 | 66 | 280 | 12.0 | 22.0 | 0.00 | 0.00 | 0.00 | 59 | |
| 20260905140003 | 66 | 282 | 12.0 | 22.0 | 0.00 | 0.00 | 0.00 | 59 | |
| 20260905135903 | 66 | 281 | 12.0 | 22.0 | 0.00 | 0.00 | 0.00 | 58 | |
| 20260905135824 | 66 | 283 | 12.0 | 22.0 | 0.00 | 0.00 | 0.00 | 58 | |
| 20260905135703 | 66 | 284 | 12.0 | 20.0 | 0.00 | 0.00 | 0.00 | 59 | |
| 20260905135604 | 67 | 284 | 11.0 | 20.0 | 0.00 | 0.00 | 0.00 | 60 | |
| 20260905135503 | 67 | 286 | 12.0 | 20.0 | 0.00 | 0.00 | 0.00 | 60 | |
| 20260905135424 | 67 | 286 | 12.0 | 20.0 | 0.00 | 0.00 | 0.00 | 60 | |
| 20260905135306 | 67 | 285 | 12.0 | 20.0 | 0.00 | 0.00 | 0.00 | 59 | |
| 20260905135203 | 67 | 286 | 12.0 | 20.0 | 0.00 | 0.00 | 0.00 | 58 | |
| 20260905135103 | 67 | 286 | 12.0 | 20.0 | 0.00 | 0.00 | 0.00 | 59 | |
| 20260905135003 | 68 | 284 | 12.0 | 20.0 | 0.00 | 0.00 | 0.00 | 59 | |
| 20260905134924 | 68 | 285 | 12.0 | 20.0 | 0.00 | 0.00 | 0.00 | 59 | |
| 20260905134803 | 68 | 281 | 12.0 | 20.0 | 0.00 | 0.00 | 0.00 | 62 | |
| 20260905134703 | 67 | 279 | 12.0 | 20.0 | 0.00 | 0.00 | 0.00 | 62 | |
| 20260905134602 | 67 | 279 | 12.0 | 20.0 | 0.00 | 0.00 | 0.00 | 61 | |
| 20260905134503 | 66 | 280 | 12.0 | 20.0 | 0.00 | 0.00 | 0.00 | 61 | |
| 20260905134403 | 66 | 281 | 12.0 | 20.0 | 0.00 | 0.00 | 0.00 | 62 | |
| 20260905134303 | 66 | 282 | 11.0 | 20.0 | 0.00 | 0.00 | 0.00 | 62 | |
| 20260905134203 | 66 | 282 | 11.0 | 20.0 | 0.00 | 0.00 | 0.00 | 61 | |
| 20260905134103 | 66 | 285 | 11.0 | 20.0 | 0.00 | 0.00 | 0.00 | 61 | |
| 20260905134003 | 66 | 288 | 11.0 | 20.0 | 0.00 | 0.00 | 0.00 | 60 | |
| 20260905133903 | 66 | 292 | 10.0 | 20.0 | 0.00 | 0.00 | 0.00 | 61 | |
| 20260905133824 | 66 | 297 | 10.0 | 20.0 | 0.00 | 0.00 | 0.00 | 61 | |
| 20260905133702 | 66 | 303 | 10.0 | 14.0 | 0.00 | 0.00 | 0.00 | 62 | |
| 20260905133603 | 66 | 306 | 10.0 | 14.0 | 0.00 | 0.00 | 0.00 | 62 | |
| 20260905133503 | 66 | 309 | 10.0 | 14.0 | 0.00 | 0.00 | 0.00 | 62 | |
| 20260905133403 | 66 | 312 | 10.0 | 14.0 | 0.00 | 0.00 | 0.00 | 64 | |
| 20260905133303 | 66 | 316 | 11.0 | 14.0 | 0.00 | 0.00 | 0.00 | 63 | |
| 20260905133203 | 66 | 318 | 11.0 | 15.0 | 0.00 | 0.00 | 0.00 | 63 | |
| 20260905133102 | 66 | 319 | 11.0 | 18.0 | 0.00 | 0.00 | 0.00 | 62 | |
| 20260905133003 | 66 | 321 | 11.0 | 18.0 | 0.00 | 0.00 | 0.00 | 62 | |
| 20260905132903 | 66 | 322 | 11.0 | 18.0 | 0.00 | 0.00 | 0.00 | 62 | |
| 20260905132824 | 66 | 322 | 11.0 | 18.0 | 0.00 | 0.00 | 0.00 | 62 | |
| 20260905132703 | 66 | 323 | 13.0 | 20.0 | 0.00 | 0.00 | 0.00 | 61 | |
| 20260905132603 | 66 | 321 | 13.0 | 22.0 | 0.00 | 0.00 | 0.00 | 62 | |
| 20260905132503 | 66 | 320 | 13.0 | 22.0 | 0.00 | 0.00 | 0.00 | 62 | |
| 20260905132403 | 66 | 318 | 14.0 | 22.0 | 0.00 | 0.00 | 0.00 | 62 | |
| 20260905132324 | 66 | 316 | 14.0 | 22.0 | 0.00 | 0.00 | 0.00 | 62 | |
| 20260905132203 | 66 | 313 | 14.0 | 22.0 | 0.00 | 0.00 | 0.00 | 62 | |
| 20260905132103 | 66 | 310 | 14.0 | 22.0 | 0.00 | 0.00 | 0.00 | 62 | |
| 20260905132003 | 66 | 306 | 14.0 | 22.0 | 0.00 | 0.00 | 0.00 | 61 | |
| 20260905131924 | 66 | 303 | 14.0 | 22.0 | 0.00 | 0.00 | 0.00 | 61 | |
| 20260905131802 | 66 | 298 | 14.0 | 22.0 | 0.00 | 0.00 | 0.00 | 61 | |
| 20260905131703 | 66 | 294 | 14.0 | 22.0 | 0.00 | 0.00 | 0.00 | 60 | |
| 20260905131603 | 66 | 293 | 13.0 | 21.0 | 0.00 | 0.00 | 0.00 | 60 | |
| 20260905131503 | 66 | 292 | 13.0 | 20.0 | 0.00 | 0.00 | 0.00 | 60 | |
| 20260905131403 | 66 | 292 | 13.0 | 20.0 | 0.00 | 0.00 | 0.00 | 59 | |
| 20260905131302 | 66 | 290 | 12.0 | 20.0 | 0.00 | 0.00 | 0.00 | 59 | |
| 20260905131203 | 66 | 287 | 12.0 | 20.0 | 0.00 | 0.00 | 0.00 | 59 | |
| 20260905131124 | 66 | 287 | 12.0 | 20.0 | 0.00 | 0.00 | 0.00 | 59 | |
| 20260905131003 | 66 | 289 | 13.0 | 20.0 | 0.00 | 0.00 | 0.00 | 59 | |
| 20260905130924 | 67 | 289 | 13.0 | 22.0 | 0.00 | 0.00 | 0.00 | 59 | |
| 20260905130803 | 67 | 290 | 13.0 | 22.0 | 0.00 | 0.00 | 0.00 | 60 | |
| 20260905130703 | 67 | 290 | 13.0 | 22.0 | 0.00 | 0.00 | 0.00 | 59 | |
| 20260905130624 | 67 | 290 | 13.0 | 22.0 | 0.00 | 0.00 | 0.00 | 59 | |
| 20260905130504 | 67 | 286 | 13.0 | 22.0 | 0.00 | 0.00 | 0.00 | 61 | |
| 20260905130424 | 66 | 284 | 13.0 | 22.0 | 0.00 | 0.00 | 0.00 | 61 | |
| 20260905130304 | 66 | 285 | 13.0 | 22.0 | 0.00 | 0.00 | 0.00 | 62 | |
| 20260905130203 | 66 | 284 | 13.0 | 22.0 | 0.00 | 0.00 | 0.00 | 62 | |
| 20260905130003 | 66 | 281 | 12.0 | 22.0 | 0.00 | 0.00 | 0.00 | 62 | |
| 20260905125903 | 66 | 281 | 11.0 | 21.0 | 0.00 | 0.00 | 0.00 | 63 | |
| 20260905125803 | 66 | 277 | 11.0 | 21.0 | 0.00 | 0.00 | 0.00 | 62 | |
| 20260905125703 | 66 | 276 | 11.0 | 18.0 | 0.00 | 0.00 | 0.00 | 62 | |
| 20260905125624 | 66 | 277 | 11.0 | 18.0 | 0.00 | 0.00 | 0.00 | 62 | |
| 20260905125503 | 66 | 278 | 12.0 | 18.0 | 0.00 | 0.00 | 0.00 | 62 | |
| 20260905125424 | 66 | 280 | 12.0 | 18.0 | 0.00 | 0.00 | 0.00 | 62 | |
| 20260905125305 | 66 | 281 | 12.0 | 21.0 | 0.00 | 0.00 | 0.00 | 60 | |
| 20260905125203 | 67 | 284 | 13.0 | 21.0 | 0.00 | 0.00 | 0.00 | 61 | |
| 20260905125123 | 67 | 284 | 13.0 | 21.0 | 0.00 | 0.00 | 0.00 | 61 | |
| 20260905125002 | 67 | 286 | 13.0 | 21.0 | 0.00 | 0.00 | 0.00 | 62 | |
| 20260905124903 | 67 | 289 | 13.0 | 21.0 | 0.00 | 0.00 | 0.00 | 60 | |
| 20260905124803 | 67 | 291 | 13.0 | 21.0 | 0.00 | 0.00 | 0.00 | 61 | |
| 20260905124703 | 67 | 293 | 13.0 | 21.0 | 0.00 | 0.00 | 0.00 | 62 | |
| 20260905124603 | 67 | 294 | 13.0 | 21.0 | 0.00 | 0.00 | 0.00 | 62 | |
| 20260905124503 | 67 | 296 | 12.0 | 21.0 | 0.00 | 0.00 | 0.00 | 62 | |
| 20260905124403 | 66 | 296 | 12.0 | 21.0 | 0.00 | 0.00 | 0.00 | 62 | |
| 20260905124303 | 66 | 297 | 12.0 | 20.0 | 0.00 | 0.00 | 0.00 | 61 | |
| 20260905124203 | 66 | 298 | 12.0 | 20.0 | 0.00 | 0.00 | 0.00 | 64 | |
| 20260905124103 | 66 | 302 | 12.0 | 18.0 | 0.00 | 0.00 | 0.00 | 63 | |
| 20260905124024 | 66 | 303 | 12.0 | 18.0 | 0.00 | 0.00 | 0.00 | 63 | |
| 20260905123903 | 65 | 304 | 13.0 | 18.0 | 0.00 | 0.00 | 0.00 | 64 | |
| 20260905123803 | 65 | 305 | 13.0 | 18.0 | 0.00 | 0.00 | 0.00 | 64 | |
| 20260905123703 | 65 | 307 | 13.0 | 18.0 | 0.00 | 0.00 | 0.00 | 64 | |
| 20260905123603 | 65 | 309 | 13.0 | 18.0 | 0.00 | 0.00 | 0.00 | 63 | |
| 20260905123503 | 65 | 310 | 14.0 | 18.0 | 0.00 | 0.00 | 0.00 | 64 | |
| 20260905123403 | 65 | 310 | 14.0 | 18.0 | 0.00 | 0.00 | 0.00 | 63 | |
| 20260905123324 | 65 | 310 | 14.0 | 18.0 | 0.00 | 0.00 | 0.00 | 63 | |
| 20260905123203 | 65 | 311 | 14.0 | 19.0 | 0.00 | 0.00 | 0.00 | 62 | |
| 20260905123103 | 65 | 310 | 14.0 | 19.0 | 0.00 | 0.00 | 0.00 | 62 | |
| 20260905123024 | 65 | 310 | 14.0 | 19.0 | 0.00 | 0.00 | 0.00 | 62 | |
| 20260905122903 | 65 | 307 | 14.0 | 19.0 | 0.00 | 0.00 | 0.00 | 61 | |
| 20260905122803 | 65 | 306 | 14.0 | 19.0 | 0.00 | 0.00 | 0.00 | 61 | |
| 20260905122703 | 65 | 304 | 13.0 | 19.0 | 0.00 | 0.00 | 0.00 | 60 | |
| 20260905122603 | 65 | 301 | 13.0 | 19.0 | 0.00 | 0.00 | 0.00 | 60 | |
| 20260905122503 | 65 | 298 | 13.0 | 19.0 | 0.00 | 0.00 | 0.00 | 60 | |
| 20260905122403 | 66 | 296 | 12.0 | 19.0 | 0.00 | 0.00 | 0.00 | 60 | |
| 20260905122306 | 66 | 294 | 12.0 | 19.0 | 0.00 | 0.00 | 0.00 | 62 | |
| 20260905122203 | 66 | 291 | 12.0 | 18.0 | 0.00 | 0.00 | 0.00 | 63 | |
| 20260905122103 | 65 | 289 | 11.0 | 18.0 | 0.00 | 0.00 | 0.00 | 62 | |
| 20260905122003 | 65 | 285 | 11.0 | 18.0 | 0.00 | 0.00 | 0.00 | 63 | |
| 20260905121924 | 65 | 281 | 11.0 | 18.0 | 0.00 | 0.00 | 0.00 | 63 | |
| 20260905121803 | 65 | 276 | 11.0 | 16.0 | 0.00 | 0.00 | 0.00 | 62 | |
| 20260905121703 | 65 | 275 | 11.0 | 16.0 | 0.00 | 0.00 | 0.00 | 62 | |
| 20260905121603 | 65 | 274 | 11.0 | 19.0 | 0.00 | 0.00 | 0.00 | 62 | |
| 20260905121503 | 65 | 275 | 11.0 | 19.0 | 0.00 | 0.00 | 0.00 | 63 | |
| 20260905121424 | 65 | 275 | 11.0 | 19.0 | 0.00 | 0.00 | 0.00 | 63 | |
| 20260905121303 | 66 | 274 | 11.0 | 19.0 | 0.00 | 0.00 | 0.00 | 63 | |
| 20260905121203 | 66 | 274 | 11.0 | 19.0 | 0.00 | 0.00 | 0.00 | 63 | |
| 20260905121102 | 66 | 271 | 11.0 | 19.0 | 0.00 | 0.00 | 0.00 | 62 | |
| 20260905121002 | 66 | 273 | 11.0 | 19.0 | 0.00 | 0.00 | 0.00 | 61 | |
| 20260905120903 | 66 | 277 | 11.0 | 19.0 | 0.00 | 0.00 | 0.00 | 62 | |
| 20260905120824 | 66 | 278 | 11.0 | 19.0 | 0.00 | 0.00 | 0.00 | 62 | |
| 20260905120703 | 66 | 283 | 12.0 | 22.0 | 0.00 | 0.00 | 0.00 | 63 | |
| 20260905120603 | 66 | 285 | 12.0 | 22.0 | 0.00 | 0.00 | 0.00 | 64 | |
| 20260905120503 | 66 | 288 | 13.0 | 22.0 | 0.00 | 0.00 | 0.00 | 64 | |
| 20260905120403 | 66 | 291 | 13.0 | 22.0 | 0.00 | 0.00 | 0.00 | 63 | |
| 20260905120324 | 66 | 292 | 13.0 | 22.0 | 0.00 | 0.00 | 0.00 | 63 | |
| 20260905120224 | 66 | 292 | 13.0 | 22.0 | 0.00 | 0.00 | 0.00 | 63 | |
| 20260905120024 | 66 | 298 | 13.0 | 22.0 | 0.00 | 0.00 | 0.00 | 64 | |
| 20260905115924 | 65 | 301 | 13.0 | 22.0 | 0.00 | 0.00 | 0.00 | 65 | |
| 20260905115803 | 65 | 304 | 14.0 | 22.0 | 0.00 | 0.00 | 0.00 | 65 | |
| 20260905115703 | 64 | 305 | 14.0 | 20.0 | 0.00 | 0.00 | 0.00 | 65 | |
| 20260905115603 | 64 | 308 | 14.0 | 22.0 | 0.00 | 0.00 | 0.00 | 65 | |
| 20260905115503 | 64 | 307 | 14.0 | 22.0 | 0.00 | 0.00 | 0.00 | 65 | |
| 20260905115424 | 64 | 307 | 14.0 | 22.0 | 0.00 | 0.00 | 0.00 | 65 | |
| 20260905115306 | 64 | 308 | 14.0 | 22.0 | 0.00 | 0.00 | 0.00 | 65 | |
| 20260905115224 | 64 | 309 | 14.0 | 22.0 | 0.00 | 0.00 | 0.00 | 65 | |
| 20260905115124 | 64 | 310 | 14.0 | 22.0 | 0.00 | 0.00 | 0.00 | 65 | |
| 20260905115003 | 64 | 310 | 14.0 | 22.0 | 0.00 | 0.00 | 0.00 | 64 | |
| 20260905114903 | 64 | 308 | 14.0 | 22.0 | 0.00 | 0.00 | 0.00 | 64 | |
| 20260905114803 | 64 | 306 | 14.0 | 22.0 | 0.00 | 0.00 | 0.00 | 64 | |
| 20260905114703 | 64 | 304 | 14.0 | 22.0 | 0.00 | 0.00 | 0.00 | 64 | |
| 20260905114603 | 64 | 300 | 14.0 | 22.0 | 0.00 | 0.00 | 0.00 | 63 | |
| 20260905114503 | 64 | 299 | 14.0 | 22.0 | 0.00 | 0.00 | 0.00 | 63 | |
| 20260905114403 | 64 | 297 | 14.0 | 22.0 | 0.00 | 0.00 | 0.00 | 64 | |
| 20260905114324 | 64 | 296 | 14.0 | 22.0 | 0.00 | 0.00 | 0.00 | 64 | |
| 20260905114203 | 64 | 294 | 14.0 | 22.0 | 0.00 | 0.00 | 0.00 | 64 | |
| 20260905114103 | 64 | 292 | 15.0 | 22.0 | 0.00 | 0.00 | 0.00 | 64 | |
| 20260905114003 | 64 | 290 | 15.0 | 22.0 | 0.00 | 0.00 | 0.00 | 64 | |
| 20260905113903 | 64 | 290 | 16.0 | 25.0 | 0.00 | 0.00 | 0.00 | 64 | |
| 20260905113824 | 64 | 289 | 16.0 | 25.0 | 0.00 | 0.00 | 0.00 | 64 | |
| 20260905113703 | 64 | 288 | 16.0 | 25.0 | 0.00 | 0.00 | 0.00 | 64 | |
| 20260905113603 | 64 | 289 | 16.0 | 25.0 | 0.00 | 0.00 | 0.00 | 63 | |
| 20260905113524 | 64 | 290 | 16.0 | 25.0 | 0.00 | 0.00 | 0.00 | 63 | |
| 20260905113425 | 64 | 292 | 15.0 | 25.0 | 0.00 | 0.00 | 0.00 | 63 | |
| 20260905113303 | 64 | 294 | 16.0 | 25.0 | 0.00 | 0.00 | 0.00 | 61 | |
| 20260905113203 | 64 | 297 | 16.0 | 25.0 | 0.00 | 0.00 | 0.00 | 61 | |
| 20260905113103 | 65 | 299 | 15.0 | 25.0 | 0.00 | 0.00 | 0.00 | 61 | |
| 20260905113003 | 65 | 302 | 15.0 | 25.0 | 0.00 | 0.00 | 0.00 | 61 | |
| 20260905112903 | 65 | 303 | 15.0 | 22.0 | 0.00 | 0.00 | 0.00 | 63 | |
| 20260905112803 | 65 | 305 | 15.0 | 22.0 | 0.00 | 0.00 | 0.00 | 62 | |
| 20260905112724 | 65 | 306 | 15.0 | 22.0 | 0.00 | 0.00 | 0.00 | 62 | |
| 20260905112603 | 65 | 308 | 16.0 | 23.0 | 0.00 | 0.00 | 0.00 | 63 | |
| 20260905112503 | 65 | 307 | 16.0 | 23.0 | 0.00 | 0.00 | 0.00 | 62 | |
| 20260905112403 | 65 | 308 | 17.0 | 23.0 | 0.00 | 0.00 | 0.00 | 63 | |
| 20260905112305 | 65 | 309 | 17.0 | 23.0 | 0.00 | 0.00 | 0.00 | 63 | |
| 20260905112203 | 65 | 309 | 18.0 | 24.0 | 0.00 | 0.00 | 0.00 | 63 | |
| 20260905112103 | 65 | 310 | 18.0 | 26.0 | 0.00 | 0.00 | 0.00 | 64 | |
| 20260905112003 | 65 | 311 | 19.0 | 26.0 | 0.00 | 0.00 | 0.00 | 62 | |
| 20260905111903 | 65 | 312 | 18.0 | 26.0 | 0.00 | 0.00 | 0.00 | 62 | |
| 20260905111803 | 65 | 314 | 18.0 | 26.0 | 0.00 | 0.00 | 0.00 | 62 | |
| 20260905111703 | 65 | 314 | 18.0 | 26.0 | 0.00 | 0.00 | 0.00 | 62 | |
| 20260905111624 | 65 | 314 | 18.0 | 26.0 | 0.00 | 0.00 | 0.00 | 62 | |
| 20260905111503 | 65 | 315 | 18.0 | 26.0 | 0.00 | 0.00 | 0.00 | 62 | |
| 20260905111403 | 65 | 313 | 18.0 | 26.0 | 0.00 | 0.00 | 0.00 | 61 | |
| 20260905111303 | 65 | 312 | 17.0 | 26.0 | 0.00 | 0.00 | 0.00 | 61 | |
| 20260905111225 | 65 | 310 | 17.0 | 26.0 | 0.00 | 0.00 | 0.00 | 61 | |
| 20260905111124 | 65 | 310 | 17.0 | 23.0 | 0.00 | 0.00 | 0.00 | 62 | |
| 20260905111003 | 65 | 310 | 17.0 | 24.0 | 0.00 | 0.00 | 0.00 | 62 | |
| 20260905110903 | 65 | 309 | 17.0 | 24.0 | 0.00 | 0.00 | 0.00 | 62 | |
| 20260905110803 | 65 | 307 | 17.0 | 24.0 | 0.00 | 0.00 | 0.00 | 62 | |
| 20260905110703 | 65 | 305 | 16.0 | 24.0 | 0.00 | 0.00 | 0.00 | 61 | |
| 20260905110603 | 65 | 303 | 16.0 | 24.0 | 0.00 | 0.00 | 0.00 | 63 | |
| 20260905110503 | 65 | 300 | 16.0 | 24.0 | 0.00 | 0.00 | 0.00 | 63 | |
| 20260905110403 | 65 | 301 | 16.0 | 24.0 | 0.00 | 0.00 | 0.00 | 62 | |
| 20260905110303 | 65 | 302 | 16.0 | 24.0 | 0.00 | 0.00 | 0.00 | 62 | |
| 20260905110224 | 65 | 304 | 16.0 | 24.0 | 0.00 | 0.00 | 0.00 | 62 | |
| 20260905110003 | 65 | 303 | 16.0 | 24.0 | 0.00 | 0.00 | 0.00 | 63 | |
| 20260905105904 | 65 | 304 | 15.0 | 24.0 | 0.00 | 0.00 | 0.00 | 64 | |
| 20260905105803 | 65 | 306 | 15.0 | 22.0 | 0.00 | 0.00 | 0.00 | 64 | |
| 20260905105704 | 65 | 306 | 15.0 | 22.0 | 0.00 | 0.00 | 0.00 | 64 | |
| 20260905105603 | 65 | 307 | 15.0 | 22.0 | 0.00 | 0.00 | 0.00 | 65 | |
| 20260905105503 | 65 | 309 | 15.0 | 22.0 | 0.00 | 0.00 | 0.00 | 65 | |
| 20260905105403 | 64 | 309 | 15.0 | 22.0 | 0.00 | 0.00 | 0.00 | 65 | |
| 20260905105306 | 64 | 309 | 15.0 | 22.0 | 0.00 | 0.00 | 0.00 | 64 | |
| 20260905105203 | 64 | 305 | 15.0 | 22.0 | 0.00 | 0.00 | 0.00 | 66 | |
| 20260905105103 | 64 | 303 | 15.0 | 21.0 | 0.00 | 0.00 | 0.00 | 65 | |
| 20260905105024 | 64 | 302 | 15.0 | 21.0 | 0.00 | 0.00 | 0.00 | 65 | |
| 20260905104924 | 64 | 299 | 14.0 | 21.0 | 0.00 | 0.00 | 0.00 | 67 | |
| 20260905104803 | 64 | 296 | 13.0 | 21.0 | 0.00 | 0.00 | 0.00 | 66 | |
| 20260905104724 | 64 | 294 | 13.0 | 21.0 | 0.00 | 0.00 | 0.00 | 66 | |
| 20260905104603 | 64 | 294 | 12.0 | 21.0 | 0.00 | 0.00 | 0.00 | 66 | |
| 20260905104503 | 64 | 293 | 12.0 | 21.0 | 0.00 | 0.00 | 0.00 | 66 | |
| 20260905104403 | 64 | 290 | 13.0 | 21.0 | 0.00 | 0.00 | 0.00 | 66 | |
| 20260905104303 | 63 | 288 | 14.0 | 24.0 | 0.00 | 0.00 | 0.00 | 65 | |
| 20260905104203 | 63 | 290 | 14.0 | 24.0 | 0.00 | 0.00 | 0.00 | 65 | |
| 20260905104103 | 64 | 290 | 14.0 | 24.0 | 0.00 | 0.00 | 0.00 | 65 | |
| 20260905104003 | 64 | 290 | 15.0 | 24.0 | 0.00 | 0.00 | 0.00 | 65 | |
| 20260905103924 | 64 | 290 | 15.0 | 24.0 | 0.00 | 0.00 | 0.00 | 65 | |
| 20260905103803 | 64 | 292 | 16.0 | 24.0 | 0.00 | 0.00 | 0.00 | 65 | |
| 20260905103703 | 64 | 292 | 17.0 | 24.0 | 0.00 | 0.00 | 0.00 | 64 | |
| 20260905103603 | 64 | 292 | 17.0 | 24.0 | 0.00 | 0.00 | 0.00 | 64 | |
| 20260905103524 | 64 | 292 | 17.0 | 24.0 | 0.00 | 0.00 | 0.00 | 64 | |
| 20260905103403 | 64 | 293 | 17.0 | 24.0 | 0.00 | 0.00 | 0.00 | 63 | |
| 20260905103324 | 64 | 295 | 17.0 | 25.0 | 0.00 | 0.00 | 0.00 | 63 | |
| 20260905103203 | 64 | 294 | 18.0 | 25.0 | 0.00 | 0.00 | 0.00 | 64 | |
| 20260905103103 | 64 | 295 | 17.0 | 25.0 | 0.00 | 0.00 | 0.00 | 64 | |
| 20260905103003 | 64 | 296 | 17.0 | 25.0 | 0.00 | 0.00 | 0.00 | 66 | |
| 20260905102903 | 64 | 296 | 16.0 | 25.0 | 0.00 | 0.00 | 0.00 | 67 | |
| 20260905102803 | 64 | 293 | 16.0 | 25.0 | 0.00 | 0.00 | 0.00 | 65 | |
| 20260905102703 | 64 | 292 | 16.0 | 25.0 | 0.00 | 0.00 | 0.00 | 66 | |
| 20260905102624 | 63 | 292 | 16.0 | 25.0 | 0.00 | 0.00 | 0.00 | 66 | |
| 20260905102503 | 63 | 291 | 15.0 | 25.0 | 0.00 | 0.00 | 0.00 | 64 | |
| 20260905102424 | 63 | 290 | 15.0 | 25.0 | 0.00 | 0.00 | 0.00 | 64 | |
| 20260905102306 | 64 | 288 | 15.0 | 23.0 | 0.00 | 0.00 | 0.00 | 66 | |
| 20260905102224 | 64 | 287 | 15.0 | 23.0 | 0.00 | 0.00 | 0.00 | 66 | |
| 20260905102103 | 64 | 288 | 15.0 | 23.0 | 0.00 | 0.00 | 0.00 | 66 | |
| 20260905102003 | 64 | 287 | 15.0 | 23.0 | 0.00 | 0.00 | 0.00 | 66 | |
| 20260905101904 | 64 | 288 | 16.0 | 23.0 | 0.00 | 0.00 | 0.00 | 67 | |
| 20260905101803 | 63 | 291 | 16.0 | 24.0 | 0.00 | 0.00 | 0.00 | 66 | |
| 20260905101703 | 63 | 293 | 17.0 | 24.0 | 0.00 | 0.00 | 0.00 | 65 | |
| 20260905101624 | 64 | 293 | 17.0 | 26.0 | 0.00 | 0.00 | 0.00 | 65 | |
| 20260905101503 | 64 | 295 | 17.0 | 26.0 | 0.00 | 0.00 | 0.00 | 67 | |
| 20260905101424 | 64 | 296 | 17.0 | 26.0 | 0.00 | 0.00 | 0.00 | 67 | |
| 20260905101303 | 64 | 298 | 17.0 | 26.0 | 0.00 | 0.00 | 0.00 | 67 | |
| 20260905101203 | 64 | 299 | 17.0 | 26.0 | 0.00 | 0.00 | 0.00 | 66 | |
| 20260905101104 | 64 | 298 | 17.0 | 26.0 | 0.00 | 0.00 | 0.00 | 67 | |
| 20260905101003 | 63 | 298 | 17.0 | 26.0 | 0.00 | 0.00 | 0.00 | 68 | |
| 20260905100903 | 63 | 298 | 16.0 | 26.0 | 0.00 | 0.00 | 0.00 | 67 | |
| 20260905100803 | 63 | 297 | 16.0 | 26.0 | 0.00 | 0.00 | 0.00 | 67 | |
| 20260905100703 | 63 | 295 | 15.0 | 26.0 | 0.00 | 0.00 | 0.00 | 68 | |
| 20260905100603 | 63 | 294 | 15.0 | 26.0 | 0.00 | 0.00 | 0.00 | 70 | |
| 20260905100503 | 63 | 293 | 15.0 | 21.0 | 0.00 | 0.00 | 0.00 | 70 | |
| 20260905100403 | 62 | 292 | 15.0 | 23.0 | 0.00 | 0.00 | 0.00 | 71 | |
| 20260905100324 | 62 | 290 | 15.0 | 23.0 | 0.00 | 0.00 | 0.00 | 71 | |
| 20260905100203 | 62 | 288 | 15.0 | 23.0 | 0.00 | 0.00 | 0.00 | 70 | |
| 20260905100003 | 62 | 288 | 15.0 | 23.0 | 0.00 | 0.00 | 0.00 | 70 | |
| 20260905095903 | 62 | 288 | 16.0 | 23.0 | 0.00 | 0.00 | 0.00 | 69 | |
| 20260905095803 | 62 | 289 | 16.0 | 23.0 | 0.00 | 0.00 | 0.00 | 69 | |
| 20260905095724 | 62 | 290 | 16.0 | 24.0 | 0.00 | 0.00 | 0.00 | 69 | |
| 20260905095603 | 62 | 290 | 16.0 | 24.0 | 0.00 | 0.00 | 0.00 | 69 | |
| 20260905095503 | 62 | 289 | 16.0 | 24.0 | 0.00 | 0.00 | 0.00 | 70 | |
| 20260905095403 | 62 | 289 | 16.0 | 25.0 | 0.00 | 0.00 | 0.00 | 69 | |
| 20260905095305 | 63 | 289 | 17.0 | 25.0 | 0.00 | 0.00 | 0.00 | 69 | |
| 20260905095203 | 63 | 289 | 17.0 | 25.0 | 0.00 | 0.00 | 0.00 | 69 | |
| 20260905095103 | 63 | 290 | 17.0 | 25.0 | 0.00 | 0.00 | 0.00 | 69 | |
| 20260905095003 | 63 | 291 | 17.0 | 25.0 | 0.00 | 0.00 | 0.00 | 70 | |
| 20260905094903 | 63 | 293 | 17.0 | 25.0 | 0.00 | 0.00 | 0.00 | 69 | |
| 20260905094803 | 63 | 293 | 17.0 | 25.0 | 0.00 | 0.00 | 0.00 | 70 | |
| 20260905094704 | 63 | 293 | 17.0 | 25.0 | 0.00 | 0.00 | 0.00 | 70 | |
| 20260905094603 | 63 | 292 | 17.0 | 25.0 | 0.00 | 0.00 | 0.00 | 69 | |
| 20260905094503 | 62 | 292 | 17.0 | 25.0 | 0.00 | 0.00 | 0.00 | 69 | |
| 20260905094403 | 62 | 293 | 17.0 | 25.0 | 0.00 | 0.00 | 0.00 | 69 | |
| 20260905094303 | 63 | 293 | 17.0 | 25.0 | 0.00 | 0.00 | 0.00 | 69 | |
| 20260905094224 | 63 | 294 | 17.0 | 25.0 | 0.00 | 0.00 | 0.00 | 69 | |
| 20260905094103 | 62 | 295 | 18.0 | 25.0 | 0.00 | 0.00 | 0.00 | 71 | |
| 20260905094003 | 62 | 295 | 18.0 | 25.0 | 0.00 | 0.00 | 0.00 | 70 | |
| 20260905093903 | 62 | 293 | 18.0 | 25.0 | 0.00 | 0.00 | 0.00 | 70 | |
| 20260905093803 | 62 | 292 | 18.0 | 25.0 | 0.00 | 0.00 | 0.00 | 70 | |
| 20260905093703 | 62 | 293 | 18.0 | 25.0 | 0.00 | 0.00 | 0.00 | 70 | |
| 20260905093603 | 62 | 295 | 18.0 | 25.0 | 0.00 | 0.00 | 0.00 | 70 | |
| 20260905093503 | 62 | 296 | 18.0 | 25.0 | 0.00 | 0.00 | 0.00 | 70 | |
| 20260905093424 | 62 | 296 | 18.0 | 25.0 | 0.00 | 0.00 | 0.00 | 70 | |
| 20260905093303 | 62 | 295 | 18.0 | 25.0 | 0.00 | 0.00 | 0.00 | 70 | |
| 20260905093203 | 62 | 293 | 18.0 | 25.0 | 0.00 | 0.00 | 0.00 | 70 | |
| 20260905093103 | 62 | 293 | 18.0 | 25.0 | 0.00 | 0.00 | 0.00 | 69 | |
| 20260905093004 | 62 | 293 | 17.0 | 25.0 | 0.00 | 0.00 | 0.00 | 70 | |
| 20260905092903 | 62 | 293 | 17.0 | 25.0 | 0.00 | 0.00 | 0.00 | 70 | |
| 20260905092803 | 62 | 293 | 17.0 | 25.0 | 0.00 | 0.00 | 0.00 | 71 | |
| 20260905092704 | 62 | 292 | 16.0 | 25.0 | 0.00 | 0.00 | 0.00 | 71 | |
| 20260905092604 | 62 | 290 | 16.0 | 21.0 | 0.00 | 0.00 | 0.00 | 71 | |
| 20260905092503 | 62 | 290 | 16.0 | 21.0 | 0.00 | 0.00 | 0.00 | 70 | |
| 20260905092403 | 62 | 290 | 16.0 | 21.0 | 0.00 | 0.00 | 0.00 | 72 | |
| 20260905092306 | 62 | 290 | 15.0 | 21.0 | 0.00 | 0.00 | 0.00 | 71 | |
| 20260905092203 | 62 | 289 | 15.0 | 21.0 | 0.00 | 0.00 | 0.00 | 73 | |
| 20260905092104 | 62 | 288 | 15.0 | 21.0 | 0.00 | 0.00 | 0.00 | 72 | |
| 20260905092024 | 62 | 287 | 15.0 | 21.0 | 0.00 | 0.00 | 0.00 | 72 | |
| 20260905091903 | 62 | 287 | 15.0 | 21.0 | 0.00 | 0.00 | 0.00 | 72 | |
| 20260905091803 | 62 | 286 | 15.0 | 21.0 | 0.00 | 0.00 | 0.00 | 73 | |
| 20260905091704 | 62 | 287 | 15.0 | 21.0 | 0.00 | 0.00 | 0.00 | 73 | |
| 20260905091603 | 62 | 285 | 14.0 | 20.0 | 0.00 | 0.00 | 0.00 | 73 | |
| 20260905091503 | 62 | 284 | 14.0 | 20.0 | 0.00 | 0.00 | 0.00 | 73 | |
| 20260905091424 | 62 | 285 | 14.0 | 20.0 | 0.00 | 0.00 | 0.00 | 73 | |
| 20260905091303 | 62 | 287 | 15.0 | 20.0 | 0.00 | 0.00 | 0.00 | 73 | |
| 20260905091203 | 62 | 287 | 15.0 | 20.0 | 0.00 | 0.00 | 0.00 | 73 | |
| 20260905091103 | 62 | 286 | 15.0 | 20.0 | 0.00 | 0.00 | 0.00 | 73 | |
| 20260905091003 | 61 | 289 | 14.0 | 20.0 | 0.00 | 0.00 | 0.00 | 73 | |
| 20260905090903 | 61 | 288 | 14.0 | 20.0 | 0.00 | 0.00 | 0.00 | 72 | |
| 20260905090804 | 62 | 290 | 14.0 | 20.0 | 0.00 | 0.00 | 0.00 | 72 | |
| 20260905090703 | 62 | 290 | 14.0 | 20.0 | 0.00 | 0.00 | 0.00 | 73 | |
| 20260905090603 | 62 | 291 | 14.0 | 20.0 | 0.00 | 0.00 | 0.00 | 74 | |
| 20260905090503 | 62 | 290 | 15.0 | 23.0 | 0.00 | 0.00 | 0.00 | 74 | |
| 20260905090403 | 62 | 289 | 15.0 | 23.0 | 0.00 | 0.00 | 0.00 | 73 | |
| 20260905090303 | 61 | 289 | 15.0 | 23.0 | 0.00 | 0.00 | 0.00 | 73 | |
| 20260905090224 | 61 | 289 | 15.0 | 23.0 | 0.00 | 0.00 | 0.00 | 73 | |
| 20260905090103 | 61 | 290 | 15.0 | 25.0 | 0.00 | 0.00 | 0.00 | 74 | |
| 20260905090003 | 61 | 288 | 15.0 | 25.0 | 0.00 | 0.00 | 0.00 | 73 | |
| 20260905085924 | 61 | 288 | 15.0 | 25.0 | 0.00 | 0.00 | 0.00 | 73 | |
| 20260905085803 | 61 | 286 | 14.0 | 25.0 | 0.00 | 0.00 | 0.00 | 74 | |
| 20260905085703 | 61 | 285 | 14.0 | 25.0 | 0.00 | 0.00 | 0.00 | 74 | |
| 20260905085603 | 61 | 285 | 14.0 | 25.0 | 0.00 | 0.00 | 0.00 | 73 | |
| 20260905085503 | 61 | 286 | 15.0 | 25.0 | 0.00 | 0.00 | 0.00 | 73 | |
| 20260905085403 | 61 | 286 | 14.0 | 25.0 | 0.00 | 0.00 | 0.00 | 74 | |
| 20260905085305 | 61 | 285 | 14.0 | 25.0 | 0.00 | 0.00 | 0.00 | 74 | |
| 20260905085203 | 61 | 285 | 14.0 | 25.0 | 0.00 | 0.00 | 0.00 | 75 | |
| 20260905085103 | 61 | 283 | 14.0 | 25.0 | 0.00 | 0.00 | 0.00 | 75 | |
| 20260905085003 | 61 | 284 | 14.0 | 25.0 | 0.00 | 0.00 | 0.00 | 74 | |
| 20260905084903 | 61 | 285 | 15.0 | 25.0 | 0.00 | 0.00 | 0.00 | 74 | |
| 20260905084803 | 61 | 286 | 16.0 | 25.0 | 0.00 | 0.00 | 0.00 | 74 | |
| 20260905084703 | 61 | 286 | 16.0 | 25.0 | 0.00 | 0.00 | 0.00 | 73 | |
| 20260905084624 | 61 | 286 | 16.0 | 25.0 | 0.00 | 0.00 | 0.00 | 73 | |
| 20260905084525 | 61 | 285 | 16.0 | 25.0 | 0.00 | 0.00 | 0.00 | 73 | |
| 20260905084403 | 61 | 284 | 16.0 | 25.0 | 0.00 | 0.00 | 0.00 | 74 | |
| 20260905084303 | 61 | 284 | 16.0 | 25.0 | 0.00 | 0.00 | 0.00 | 74 | |
| 20260905084203 | 61 | 285 | 17.0 | 25.0 | 0.00 | 0.00 | 0.00 | 75 | |
| 20260905084103 | 60 | 286 | 17.0 | 25.0 | 0.00 | 0.00 | 0.00 | 74 | |
| 20260905084003 | 60 | 285 | 17.0 | 25.0 | 0.00 | 0.00 | 0.00 | 74 | |
| 20260905083903 | 60 | 284 | 16.0 | 25.0 | 0.00 | 0.00 | 0.00 | 73 | |
| 20260905083824 | 60 | 284 | 16.0 | 25.0 | 0.00 | 0.00 | 0.00 | 73 | |
| 20260905083703 | 60 | 284 | 16.0 | 25.0 | 0.00 | 0.00 | 0.00 | 74 | |
| 20260905083603 | 60 | 284 | 16.0 | 25.0 | 0.00 | 0.00 | 0.00 | 74 | |
| 20260905083503 | 60 | 285 | 15.0 | 25.0 | 0.00 | 0.00 | 0.00 | 74 | |
| 20260905083403 | 60 | 286 | 15.0 | 24.0 | 0.00 | 0.00 | 0.00 | 74 | |
| 20260905083303 | 60 | 286 | 15.0 | 28.0 | 0.00 | 0.00 | 0.00 | 74 | |
| 20260905083203 | 60 | 284 | 15.0 | 28.0 | 0.00 | 0.00 | 0.00 | 74 | |
| 20260905083103 | 60 | 283 | 14.0 | 28.0 | 0.00 | 0.00 | 0.00 | 75 | |
| 20260905083024 | 60 | 283 | 14.0 | 28.0 | 0.00 | 0.00 | 0.00 | 75 | |
| 20260905082903 | 60 | 282 | 14.0 | 28.0 | 0.00 | 0.00 | 0.00 | 74 | |
| 20260905082824 | 60 | 282 | 14.0 | 28.0 | 0.00 | 0.00 | 0.00 | 74 | |
| 20260905082703 | 60 | 283 | 13.0 | 28.0 | 0.00 | 0.00 | 0.00 | 75 | |
| 20260905082624 | 60 | 283 | 13.0 | 28.0 | 0.00 | 0.00 | 0.00 | 75 | |
| 20260905082524 | 60 | 284 | 13.0 | 28.0 | 0.00 | 0.00 | 0.00 | 74 | |
| 20260905082424 | 60 | 284 | 13.0 | 28.0 | 0.00 | 0.00 | 0.00 | 75 | |
| 20260905082306 | 60 | 283 | 12.0 | 20.0 | 0.00 | 0.00 | 0.00 | 76 | |
| 20260905082203 | 60 | 284 | 12.0 | 19.0 | 0.00 | 0.00 | 0.00 | 77 | |
| 20260905082103 | 60 | 284 | 12.0 | 19.0 | 0.00 | 0.00 | 0.00 | 77 | |
| 20260905082003 | 60 | 283 | 12.0 | 19.0 | 0.00 | 0.00 | 0.00 | 77 | |
| 20260905081903 | 60 | 282 | 12.0 | 19.0 | 0.00 | 0.00 | 0.00 | 78 | |
| 20260905081803 | 60 | 282 | 12.0 | 19.0 | 0.00 | 0.00 | 0.00 | 77 | |
| 20260905081703 | 60 | 280 | 12.0 | 19.0 | 0.00 | 0.00 | 0.00 | 77 | |
| 20260905081603 | 60 | 278 | 12.0 | 19.0 | 0.00 | 0.00 | 0.00 | 77 | |
| 20260905081503 | 60 | 278 | 12.0 | 19.0 | 0.00 | 0.00 | 0.00 | 77 | |
| 20260905081403 | 60 | 277 | 11.0 | 19.0 | 0.00 | 0.00 | 0.00 | 77 | |
| 20260905081303 | 60 | 277 | 12.0 | 19.0 | 0.00 | 0.00 | 0.00 | 78 | |
| 20260905081203 | 60 | 279 | 12.0 | 19.0 | 0.00 | 0.00 | 0.00 | 78 | |
| 20260905081103 | 60 | 280 | 12.0 | 18.0 | 0.00 | 0.00 | 0.00 | 78 | |
| 20260905081003 | 60 | 281 | 12.0 | 18.0 | 0.00 | 0.00 | 0.00 | 79 | |
| 20260905080904 | 60 | 282 | 12.0 | 18.0 | 0.00 | 0.00 | 0.00 | 79 | |
| 20260905080803 | 59 | 283 | 12.0 | 18.0 | 0.00 | 0.00 | 0.00 | 78 | |
| 20260905080724 | 59 | 283 | 12.0 | 18.0 | 0.00 | 0.00 | 0.00 | 78 | |
| 20260905080603 | 59 | 280 | 12.0 | 18.0 | 0.00 | 0.00 | 0.00 | 78 | |
| 20260905080503 | 59 | 279 | 12.0 | 18.0 | 0.00 | 0.00 | 0.00 | 79 | |
| 20260905080403 | 59 | 279 | 12.0 | 18.0 | 0.00 | 0.00 | 0.00 | 79 | |
| 20260905080303 | 59 | 279 | 12.0 | 22.0 | 0.00 | 0.00 | 0.00 | 79 | |
| 20260905080203 | 59 | 279 | 12.0 | 22.0 | 0.00 | 0.00 | 0.00 | 79 | |
| 20260905080003 | 59 | 278 | 13.0 | 22.0 | 0.00 | 0.00 | 0.00 | 79 | |
| 20260905075924 | 59 | 277 | 13.0 | 22.0 | 0.00 | 0.00 | 0.00 | 79 | |
| 20260905075824 | 59 | 276 | 13.0 | 22.0 | 0.00 | 0.00 | 0.00 | 79 | |
| 20260905075703 | 59 | 276 | 13.0 | 22.0 | 0.00 | 0.00 | 0.00 | 79 | |
| 20260905075603 | 59 | 278 | 13.0 | 22.0 | 0.00 | 0.00 | 0.00 | 79 | |
| 20260905075524 | 59 | 279 | 13.0 | 22.0 | 0.00 | 0.00 | 0.00 | 79 | |
| 20260905075403 | 59 | 280 | 13.0 | 22.0 | 0.00 | 0.00 | 0.00 | 79 | |
| 20260905075306 | 59 | 280 | 12.0 | 22.0 | 0.00 | 0.00 | 0.00 | 80 | |
| 20260905075203 | 59 | 278 | 12.0 | 19.0 | 0.00 | 0.00 | 0.00 | 80 | |
| 20260905075124 | 59 | 279 | 12.0 | 19.0 | 0.00 | 0.00 | 0.00 | 80 | |
| 20260905075003 | 59 | 279 | 12.0 | 19.0 | 0.00 | 0.00 | 0.00 | 80 | |
| 20260905074903 | 59 | 279 | 11.0 | 19.0 | 0.00 | 0.00 | 0.00 | 80 | |
| 20260905074824 | 59 | 281 | 11.0 | 19.0 | 0.00 | 0.00 | 0.00 | 80 | |
| 20260905074704 | 59 | 280 | 11.0 | 16.0 | 0.00 | 0.00 | 0.00 | 80 | |
| 20260905074603 | 59 | 281 | 11.0 | 16.0 | 0.00 | 0.00 | 0.00 | 80 | |
| 20260905074503 | 59 | 281 | 10.0 | 16.0 | 0.00 | 0.00 | 0.00 | 80 | |
| 20260905074404 | 59 | 282 | 10.0 | 16.0 | 0.00 | 0.00 | 0.00 | 80 | |
| 20260905074303 | 59 | 283 | 10.0 | 16.0 | 0.00 | 0.00 | 0.00 | 80 | |
| 20260905074203 | 58 | 285 | 10.0 | 16.0 | 0.00 | 0.00 | 0.00 | 81 | |
| 20260905074103 | 58 | 286 | 10.0 | 16.0 | 0.00 | 0.00 | 0.00 | 81 | |
| 20260905074003 | 58 | 286 | 9.0 | 16.0 | 0.00 | 0.00 | 0.00 | 81 | |
| 20260905073903 | 58 | 287 | 9.0 | 14.0 | 0.00 | 0.00 | 0.00 | 81 | |
| 20260905073803 | 58 | 288 | 9.0 | 13.0 | 0.00 | 0.00 | 0.00 | 81 | |
| 20260905073703 | 58 | 286 | 9.0 | 13.0 | 0.00 | 0.00 | 0.00 | 81 | |
| 20260905073603 | 58 | 286 | 9.0 | 13.0 | 0.00 | 0.00 | 0.00 | 81 | |
| 20260905073503 | 58 | 286 | 9.0 | 13.0 | 0.00 | 0.00 | 0.00 | 82 | |
| 20260905073403 | 58 | 285 | 9.0 | 13.0 | 0.00 | 0.00 | 0.00 | 82 | |
| 20260905073303 | 58 | 286 | 10.0 | 13.0 | 0.00 | 0.00 | 0.00 | 81 | |
| 20260905073203 | 58 | 285 | 10.0 | 14.0 | 0.00 | 0.00 | 0.00 | 81 | |
| 20260905073103 | 58 | 285 | 10.0 | 16.0 | 0.00 | 0.00 | 0.00 | 81 | |
| 20260905073024 | 58 | 284 | 10.0 | 16.0 | 0.00 | 0.00 | 0.00 | 81 | |
| 20260905072903 | 58 | 284 | 10.0 | 16.0 | 0.00 | 0.00 | 0.00 | 81 | |
| 20260905072803 | 58 | 282 | 10.0 | 16.0 | 0.00 | 0.00 | 0.00 | 81 | |
| 20260905072703 | 58 | 282 | 10.0 | 16.0 | 0.00 | 0.00 | 0.00 | 82 | |
| 20260905072603 | 58 | 282 | 11.0 | 16.0 | 0.00 | 0.00 | 0.00 | 82 | |
| 20260905072503 | 58 | 282 | 11.0 | 16.0 | 0.00 | 0.00 | 0.00 | 82 | |
| 20260905072424 | 58 | 280 | 11.0 | 16.0 | 0.00 | 0.00 | 0.00 | 82 | |
| 20260905072305 | 58 | 279 | 11.0 | 16.0 | 0.00 | 0.00 | 0.00 | 81 | |
| 20260905072203 | 58 | 278 | 11.0 | 16.0 | 0.00 | 0.00 | 0.00 | 81 | |
| 20260905072103 | 58 | 278 | 10.0 | 16.0 | 0.00 | 0.00 | 0.00 | 81 | |
| 20260905072024 | 58 | 276 | 10.0 | 16.0 | 0.00 | 0.00 | 0.00 | 81 | |
| 20260905071903 | 58 | 277 | 11.0 | 16.0 | 0.00 | 0.00 | 0.00 | 81 | |
| 20260905071803 | 58 | 276 | 11.0 | 16.0 | 0.00 | 0.00 | 0.00 | 81 | |
| 20260905071703 | 58 | 277 | 11.0 | 16.0 | 0.00 | 0.00 | 0.00 | 81 | |
| 20260905071604 | 58 | 276 | 11.0 | 16.0 | 0.00 | 0.00 | 0.00 | 81 | |
| 20260905071524 | 58 | 274 | 11.0 | 19.0 | 0.00 | 0.00 | 0.00 | 81 | |
| 20260905071424 | 58 | 276 | 11.0 | 19.0 | 0.00 | 0.00 | 0.00 | 82 | |
| 20260905071303 | 58 | 272 | 12.0 | 20.0 | 0.00 | 0.00 | 0.00 | 81 | |
| 20260905071203 | 58 | 271 | 12.0 | 20.0 | 0.00 | 0.00 | 0.00 | 81 | |
| 20260905071103 | 58 | 269 | 12.0 | 20.0 | 0.00 | 0.00 | 0.00 | 81 | |
| 20260905071003 | 58 | 268 | 12.0 | 20.0 | 0.00 | 0.00 | 0.00 | 81 | |
| 20260905070903 | 58 | 268 | 12.0 | 20.0 | 0.00 | 0.00 | 0.00 | 81 | |
| 20260905070803 | 58 | 267 | 12.0 | 20.0 | 0.00 | 0.00 | 0.00 | 81 | |
| 20260905070703 | 58 | 266 | 12.0 | 20.0 | 0.00 | 0.00 | 0.00 | 81 | |
| 20260905070624 | 58 | 266 | 12.0 | 20.0 | 0.00 | 0.00 | 0.00 | 81 | |
| 20260905070503 | 58 | 266 | 12.0 | 20.0 | 0.00 | 0.00 | 0.00 | 81 | |
| 20260905070403 | 58 | 265 | 12.0 | 19.0 | 0.00 | 0.00 | 0.00 | 81 | |
| 20260905070303 | 58 | 267 | 12.0 | 19.0 | 0.00 | 0.00 | 0.00 | 81 | |
| 20260905070203 | 58 | 267 | 12.0 | 19.0 | 0.00 | 0.00 | 0.00 | 81 | |
| 20260905070003 | 58 | 268 | 12.0 | 19.0 | 0.00 | 0.00 | 0.00 | 81 | |
| 20260905065903 | 58 | 267 | 12.0 | 19.0 | 0.00 | 0.00 | 0.00 | 81 | |
| 20260905065803 | 58 | 267 | 11.0 | 19.0 | 0.00 | 0.00 | 0.00 | 81 | |
| 20260905065703 | 58 | 267 | 11.0 | 16.0 | 0.00 | 0.00 | 0.00 | 81 | |
| 20260905065603 | 58 | 267 | 11.0 | 16.0 | 0.00 | 0.00 | 0.00 | 82 | |
| 20260905065503 | 58 | 266 | 11.0 | 15.0 | 0.00 | 0.00 | 0.00 | 82 | |
| 20260905065403 | 58 | 267 | 11.0 | 15.0 | 0.00 | 0.00 | 0.00 | 82 | |
| 20260905065306 | 58 | 267 | 10.0 | 15.0 | 0.00 | 0.00 | 0.00 | 82 | |
| 20260905065203 | 58 | 267 | 10.0 | 15.0 | 0.00 | 0.00 | 0.00 | 82 | |
| 20260905065124 | 58 | 267 | 10.0 | 15.0 | 0.00 | 0.00 | 0.00 | 82 | |
| 20260905065003 | 57 | 266 | 10.0 | 15.0 | 0.00 | 0.00 | 0.00 | 82 | |
| 20260905064903 | 57 | 265 | 9.0 | 15.0 | 0.00 | 0.00 | 0.00 | 83 | |
| 20260905064803 | 57 | 266 | 9.0 | 14.0 | 0.00 | 0.00 | 0.00 | 83 | |
| 20260905064703 | 57 | 266 | 8.0 | 14.0 | 0.00 | 0.00 | 0.00 | 82 | |
| 20260905064610 | 57 | 266 | 8.0 | 14.0 | 0.00 | 0.00 | 0.00 | 82 | |
| 20260905064503 | 57 | 265 | 7.0 | 14.0 | 0.00 | 0.00 | 0.00 | 83 | |
| 20260905064403 | 57 | 265 | 7.0 | 13.0 | 0.00 | 0.00 | 0.00 | 83 | |
| 20260905064324 | 57 | 265 | 7.0 | 13.0 | 0.00 | 0.00 | 0.00 | 83 | |
| 20260905064203 | 57 | 263 | 7.0 | 13.0 | 0.00 | 0.00 | 0.00 | 83 | |
| 20260905064103 | 57 | 264 | 7.0 | 11.0 | 0.00 | 0.00 | 0.00 | 84 | |
| 20260905064024 | 57 | 265 | 7.0 | 11.0 | 0.00 | 0.00 | 0.00 | 84 | |
| 20260905063903 | 57 | 267 | 6.0 | 9.0 | 0.00 | 0.00 | 0.00 | 84 | |
| 20260905063824 | 57 | 266 | 6.0 | 9.0 | 0.00 | 0.00 | 0.00 | 84 | |
| 20260905063703 | 57 | 266 | 6.0 | 11.0 | 0.00 | 0.00 | 0.00 | 83 | |
| 20260905063603 | 57 | 265 | 6.0 | 11.0 | 0.00 | 0.00 | 0.00 | 83 | |
| 20260905063503 | 57 | 264 | 6.0 | 11.0 | 0.00 | 0.00 | 0.00 | 83 | |
| 20260905063403 | 57 | 264 | 6.0 | 11.0 | 0.00 | 0.00 | 0.00 | 83 | |
| 20260905063303 | 57 | 261 | 6.0 | 11.0 | 0.00 | 0.00 | 0.00 | 83 | |
| 20260905063203 | 57 | 262 | 6.0 | 11.0 | 0.00 | 0.00 | 0.00 | 83 | |
| 20260905063103 | 57 | 263 | 6.0 | 11.0 | 0.00 | 0.00 | 0.00 | 83 | |
| 20260905063003 | 57 | 262 | 6.0 | 11.0 | 0.00 | 0.00 | 0.00 | 83 | |
| 20260905062924 | 57 | 262 | 6.0 | 11.0 | 0.00 | 0.00 | 0.00 | 83 | |
| 20260905062803 | 57 | 260 | 6.0 | 11.0 | 0.00 | 0.00 | 0.00 | 83 | |
| 20260905062703 | 57 | 258 | 6.0 | 10.0 | 0.00 | 0.00 | 0.00 | 83 | |
| 20260905062603 | 57 | 259 | 6.0 | 13.0 | 0.00 | 0.00 | 0.00 | 83 | |
| 20260905062503 | 57 | 258 | 7.0 | 13.0 | 0.00 | 0.00 | 0.00 | 83 | |
| 20260905062403 | 57 | 257 | 7.0 | 13.0 | 0.00 | 0.00 | 0.00 | 83 | |
| 20260905062305 | 57 | 257 | 7.0 | 13.0 | 0.00 | 0.00 | 0.00 | 83 | |
| 20260905062203 | 56 | 256 | 7.0 | 13.0 | 0.00 | 0.00 | 0.00 | 83 | |
| 20260905062103 | 56 | 256 | 8.0 | 13.0 | 0.00 | 0.00 | 0.00 | 83 | |
| 20260905062003 | 56 | 257 | 8.0 | 13.0 | 0.00 | 0.00 | 0.00 | 83 | |
| 20260905061903 | 56 | 257 | 8.0 | 13.0 | 0.00 | 0.00 | 0.00 | 83 | |
| 20260905061803 | 56 | 257 | 8.0 | 13.0 | 0.00 | 0.00 | 0.00 | 83 | |
| 20260905061703 | 56 | 258 | 8.0 | 13.0 | 0.00 | 0.00 | 0.00 | 82 | |
| 20260905061624 | 56 | 258 | 8.0 | 13.0 | 0.00 | 0.00 | 0.00 | 82 | |
| 20260905061503 | 56 | 259 | 8.0 | 13.0 | 0.00 | 0.00 | 0.00 | 82 | |
| 20260905061403 | 56 | 261 | 8.0 | 13.0 | 0.00 | 0.00 | 0.00 | 82 | |
| 20260905061303 | 56 | 263 | 8.0 | 13.0 | 0.00 | 0.00 | 0.00 | 82 | |
| 20260905061203 | 56 | 265 | 8.0 | 16.0 | 0.00 | 0.00 | 0.00 | 82 | |
| 20260905061103 | 56 | 264 | 9.0 | 16.0 | 0.00 | 0.00 | 0.00 | 82 | |
| 20260905061003 | 56 | 263 | 9.0 | 16.0 | 0.00 | 0.00 | 0.00 | 82 | |
| 20260905060903 | 56 | 262 | 9.0 | 16.0 | 0.00 | 0.00 | 0.00 | 82 | |
| 20260905060803 | 57 | 262 | 9.0 | 16.0 | 0.00 | 0.00 | 0.00 | 82 | |
| 20260905060724 | 57 | 262 | 9.0 | 16.0 | 0.00 | 0.00 | 0.00 | 82 | |
| 20260905060624 | 57 | 263 | 9.0 | 16.0 | 0.00 | 0.00 | 0.00 | 82 | |
| 20260905060503 | 57 | 263 | 10.0 | 16.0 | 0.00 | 0.00 | 0.00 | 82 | |
| 20260905060403 | 57 | 262 | 10.0 | 16.0 | 0.00 | 0.00 | 0.00 | 82 | |
| 20260905060303 | 57 | 261 | 10.0 | 16.0 | 0.00 | 0.00 | 0.00 | 82 | |
| 20260905060203 | 57 | 261 | 9.0 | 15.0 | 0.00 | 0.00 | 0.00 | 82 | |
| 20260905060024 | 57 | 262 | 9.0 | 15.0 | 0.00 | 0.00 | 0.00 | 82 | |
| 20260905055903 | 57 | 262 | 9.0 | 15.0 | 0.00 | 0.00 | 0.00 | 82 | |
| 20260905055803 | 57 | 262 | 9.0 | 15.0 | 0.00 | 0.00 | 0.00 | 82 | |
| 20260905055703 | 57 | 264 | 9.0 | 15.0 | 0.00 | 0.00 | 0.00 | 82 | |
| 20260905055603 | 57 | 264 | 9.0 | 14.0 | 0.00 | 0.00 | 0.00 | 82 | |
| 20260905055524 | 57 | 264 | 9.0 | 15.0 | 0.00 | 0.00 | 0.00 | 82 | |
| 20260905055403 | 57 | 265 | 9.0 | 15.0 | 0.00 | 0.00 | 0.00 | 82 | |
| 20260905055324 | 57 | 265 | 9.0 | 15.0 | 0.00 | 0.00 | 0.00 | 82 | |
| 20260905055203 | 57 | 268 | 9.0 | 15.0 | 0.00 | 0.00 | 0.00 | 82 | |
| 20260905055103 | 57 | 267 | 9.0 | 15.0 | 0.00 | 0.00 | 0.00 | 82 | |
| 20260905055003 | 57 | 267 | 9.0 | 15.0 | 0.00 | 0.00 | 0.00 | 82 | |
| 20260905054903 | 56 | 269 | 9.0 | 15.0 | 0.00 | 0.00 | 0.00 | 82 | |
| 20260905054803 | 56 | 269 | 9.0 | 15.0 | 0.00 | 0.00 | 0.00 | 82 | |
| 20260905054703 | 56 | 269 | 9.0 | 15.0 | 0.00 | 0.00 | 0.00 | 82 | |
| 20260905054603 | 56 | 269 | 8.0 | 15.0 | 0.00 | 0.00 | 0.00 | 82 | |
| 20260905054503 | 56 | 269 | 8.0 | 14.0 | 0.00 | 0.00 | 0.00 | 82 | |
| 20260905054424 | 56 | 269 | 8.0 | 14.0 | 0.00 | 0.00 | 0.00 | 82 | |
| 20260905054303 | 56 | 269 | 8.0 | 14.0 | 0.00 | 0.00 | 0.00 | 83 | |
| 20260905054203 | 56 | 267 | 8.0 | 14.0 | 0.00 | 0.00 | 0.00 | 83 | |
| 20260905054103 | 56 | 268 | 7.0 | 14.0 | 0.00 | 0.00 | 0.00 | 82 | |
| 20260905054003 | 56 | 268 | 7.0 | 14.0 | 0.00 | 0.00 | 0.00 | 83 | |
| 20260905053903 | 56 | 268 | 7.0 | 12.0 | 0.00 | 0.00 | 0.00 | 83 | |
| 20260905053803 | 56 | 268 | 7.0 | 12.0 | 0.00 | 0.00 | 0.00 | 83 | |
| 20260905053703 | 56 | 269 | 7.0 | 12.0 | 0.00 | 0.00 | 0.00 | 82 | |
| 20260905053603 | 56 | 271 | 7.0 | 12.0 | 0.00 | 0.00 | 0.00 | 82 | |
| 20260905053524 | 56 | 271 | 7.0 | 12.0 | 0.00 | 0.00 | 0.00 | 82 | |
| 20260905053403 | 56 | 273 | 7.0 | 12.0 | 0.00 | 0.00 | 0.00 | 82 | |
| 20260905053303 | 56 | 273 | 7.0 | 12.0 | 0.00 | 0.00 | 0.00 | 82 | |
| 20260905053203 | 56 | 273 | 7.0 | 12.0 | 0.00 | 0.00 | 0.00 | 83 | |
| 20260905053103 | 56 | 273 | 7.0 | 12.0 | 0.00 | 0.00 | 0.00 | 83 | |
| 20260905053003 | 56 | 273 | 7.0 | 12.0 | 0.00 | 0.00 | 0.00 | 83 | |
| 20260905052903 | 56 | 272 | 7.0 | 11.0 | 0.00 | 0.00 | 0.00 | 83 | |
| 20260905052803 | 56 | 271 | 7.0 | 11.0 | 0.00 | 0.00 | 0.00 | 83 | |
| 20260905052703 | 56 | 270 | 7.0 | 11.0 | 0.00 | 0.00 | 0.00 | 83 | |
| 20260905052603 | 56 | 269 | 7.0 | 11.0 | 0.00 | 0.00 | 0.00 | 83 | |
| 20260905052524 | 56 | 269 | 7.0 | 11.0 | 0.00 | 0.00 | 0.00 | 83 | |
| 20260905052424 | 56 | 268 | 7.0 | 12.0 | 0.00 | 0.00 | 0.00 | 83 | |
| 20260905052306 | 56 | 268 | 7.0 | 12.0 | 0.00 | 0.00 | 0.00 | 83 | |
| 20260905052224 | 56 | 268 | 7.0 | 12.0 | 0.00 | 0.00 | 0.00 | 83 | |
| 20260905052103 | 56 | 269 | 7.0 | 12.0 | 0.00 | 0.00 | 0.00 | 83 | |
| 20260905052003 | 56 | 270 | 7.0 | 12.0 | 0.00 | 0.00 | 0.00 | 83 | |
| 20260905051924 | 56 | 270 | 7.0 | 12.0 | 0.00 | 0.00 | 0.00 | 83 | |
| 20260905051803 | 56 | 270 | 7.0 | 12.0 | 0.00 | 0.00 | 0.00 | 83 | |
| 20260905051703 | 56 | 270 | 7.0 | 12.0 | 0.00 | 0.00 | 0.00 | 83 | |
| 20260905051603 | 56 | 270 | 7.0 | 12.0 | 0.00 | 0.00 | 0.00 | 83 | |
| 20260905051503 | 56 | 270 | 7.0 | 12.0 | 0.00 | 0.00 | 0.00 | 83 | |
| 20260905051403 | 56 | 271 | 7.0 | 12.0 | 0.00 | 0.00 | 0.00 | 82 | |
| 20260905051303 | 56 | 271 | 7.0 | 12.0 | 0.00 | 0.00 | 0.00 | 83 | |
| 20260905051203 | 56 | 271 | 7.0 | 12.0 | 0.00 | 0.00 | 0.00 | 83 | |
| 20260905051103 | 56 | 272 | 7.0 | 12.0 | 0.00 | 0.00 | 0.00 | 83 | |
| 20260905051003 | 56 | 271 | 7.0 | 11.0 | 0.00 | 0.00 | 0.00 | 83 | |
| 20260905050903 | 56 | 271 | 7.0 | 11.0 | 0.00 | 0.00 | 0.00 | 83 | |
| 20260905050803 | 56 | 272 | 7.0 | 11.0 | 0.00 | 0.00 | 0.00 | 82 | |
| 20260905050724 | 56 | 273 | 7.0 | 11.0 | 0.00 | 0.00 | 0.00 | 82 | |
| 20260905050624 | 56 | 274 | 7.0 | 11.0 | 0.00 | 0.00 | 0.00 | 82 | |
| 20260905050524 | 56 | 274 | 7.0 | 11.0 | 0.00 | 0.00 | 0.00 | 83 | |
| 20260905050403 | 56 | 275 | 8.0 | 13.0 | 0.00 | 0.00 | 0.00 | 83 | |
| 20260905050303 | 56 | 274 | 8.0 | 13.0 | 0.00 | 0.00 | 0.00 | 83 | |
| 20260905050203 | 56 | 274 | 8.0 | 13.0 | 0.00 | 0.00 | 0.00 | 83 | |
| 20260905050103 | 56 | 274 | 8.0 | 13.0 | 0.00 | 0.00 | 0.00 | 83 | |
| 20260905050003 | 56 | 275 | 8.0 | 14.0 | 0.00 | 0.00 | 0.00 | 83 | |
| 20260905045924 | 56 | 275 | 8.0 | 14.0 | 0.00 | 0.00 | 0.00 | 83 | |
| 20260905045803 | 56 | 276 | 8.0 | 14.0 | 0.00 | 0.00 | 0.00 | 83 | |
| 20260905045703 | 56 | 277 | 8.0 | 14.0 | 0.00 | 0.00 | 0.00 | 83 | |
| 20260905045603 | 56 | 277 | 8.0 | 14.0 | 0.00 | 0.00 | 0.00 | 83 | |
| 20260905045503 | 56 | 277 | 8.0 | 14.0 | 0.00 | 0.00 | 0.00 | 83 | |
| 20260905045403 | 56 | 278 | 8.0 | 14.0 | 0.00 | 0.00 | 0.00 | 83 | |
| 20260905045305 | 56 | 278 | 8.0 | 14.0 | 0.00 | 0.00 | 0.00 | 83 | |
| 20260905045203 | 56 | 277 | 8.0 | 14.0 | 0.00 | 0.00 | 0.00 | 83 | |
| 20260905045103 | 56 | 278 | 8.0 | 14.0 | 0.00 | 0.00 | 0.00 | 83 | |
| 20260905045003 | 56 | 279 | 8.0 | 13.0 | 0.00 | 0.00 | 0.00 | 83 | |
| 20260905044903 | 56 | 279 | 8.0 | 13.0 | 0.00 | 0.00 | 0.00 | 83 | |
| 20260905044803 | 56 | 279 | 8.0 | 13.0 | 0.00 | 0.00 | 0.00 | 83 | |
| 20260905044703 | 56 | 279 | 7.0 | 13.0 | 0.00 | 0.00 | 0.00 | 83 | |
| 20260905044624 | 56 | 278 | 7.0 | 13.0 | 0.00 | 0.00 | 0.00 | 83 | |
| 20260905044503 | 56 | 278 | 7.0 | 13.0 | 0.00 | 0.00 | 0.00 | 83 | |
| 20260905044403 | 56 | 277 | 7.0 | 12.0 | 0.00 | 0.00 | 0.00 | 83 | |
| 20260905044324 | 56 | 276 | 7.0 | 12.0 | 0.00 | 0.00 | 0.00 | 83 | |
| 20260905044224 | 56 | 276 | 7.0 | 12.0 | 0.00 | 0.00 | 0.00 | 83 | |
| 20260905044103 | 56 | 274 | 7.0 | 12.0 | 0.00 | 0.00 | 0.00 | 83 | |
| 20260905044003 | 56 | 273 | 7.0 | 12.0 | 0.00 | 0.00 | 0.00 | 83 | |
| 20260905043924 | 56 | 273 | 7.0 | 12.0 | 0.00 | 0.00 | 0.00 | 83 | |
| 20260905043824 | 56 | 272 | 7.0 | 12.0 | 0.00 | 0.00 | 0.00 | 83 | |
| 20260905043703 | 56 | 271 | 6.0 | 10.0 | 0.00 | 0.00 | 0.00 | 84 | |
| 20260905043624 | 56 | 272 | 6.0 | 10.0 | 0.00 | 0.00 | 0.00 | 84 | |
| 20260905043503 | 56 | 271 | 6.0 | 11.0 | 0.00 | 0.00 | 0.00 | 84 | |
| 20260905043403 | 56 | 270 | 6.0 | 11.0 | 0.00 | 0.00 | 0.00 | 83 | |
| 20260905043303 | 56 | 271 | 6.0 | 11.0 | 0.00 | 0.00 | 0.00 | 84 | |
| 20260905043203 | 56 | 271 | 6.0 | 11.0 | 0.00 | 0.00 | 0.00 | 83 | |
| 20260905043125 | 56 | 271 | 6.0 | 11.0 | 0.00 | 0.00 | 0.00 | 83 | |
| 20260905043003 | 56 | 269 | 6.0 | 11.0 | 0.00 | 0.00 | 0.00 | 83 | |
| 20260905042903 | 56 | 267 | 6.0 | 11.0 | 0.00 | 0.00 | 0.00 | 83 | |
| 20260905042803 | 56 | 267 | 7.0 | 11.0 | 0.00 | 0.00 | 0.00 | 83 | |
| 20260905042703 | 56 | 267 | 7.0 | 11.0 | 0.00 | 0.00 | 0.00 | 83 | |
| 20260905042624 | 56 | 266 | 7.0 | 11.0 | 0.00 | 0.00 | 0.00 | 83 | |
| 20260905042503 | 56 | 265 | 7.0 | 11.0 | 0.00 | 0.00 | 0.00 | 83 | |
| 20260905042424 | 56 | 265 | 7.0 | 11.0 | 0.00 | 0.00 | 0.00 | 83 | |
| 20260905042306 | 56 | 265 | 7.0 | 11.0 | 0.00 | 0.00 | 0.00 | 83 | |
| 20260905042203 | 56 | 264 | 7.0 | 11.0 | 0.00 | 0.00 | 0.00 | 83 | |
| 20260905042103 | 56 | 264 | 7.0 | 11.0 | 0.00 | 0.00 | 0.00 | 83 | |
| 20260905042003 | 56 | 264 | 7.0 | 11.0 | 0.00 | 0.00 | 0.00 | 83 | |
| 20260905041903 | 56 | 264 | 7.0 | 11.0 | 0.00 | 0.00 | 0.00 | 83 | |
| 20260905041803 | 56 | 264 | 7.0 | 11.0 | 0.00 | 0.00 | 0.00 | 83 | |
| 20260905041724 | 56 | 262 | 7.0 | 11.0 | 0.00 | 0.00 | 0.00 | 83 | |
| 20260905041603 | 56 | 262 | 7.0 | 11.0 | 0.00 | 0.00 | 0.00 | 83 | |
| 20260905041503 | 56 | 261 | 7.0 | 11.0 | 0.00 | 0.00 | 0.00 | 83 | |
| 20260905041403 | 56 | 259 | 7.0 | 11.0 | 0.00 | 0.00 | 0.00 | 83 | |
| 20260905041303 | 56 | 257 | 7.0 | 11.0 | 0.00 | 0.00 | 0.00 | 83 | |
| 20260905041203 | 56 | 257 | 8.0 | 12.0 | 0.00 | 0.00 | 0.00 | 83 | |
| 20260905041103 | 56 | 256 | 8.0 | 12.0 | 0.00 | 0.00 | 0.00 | 83 | |
| 20260905041024 | 56 | 256 | 8.0 | 12.0 | 0.00 | 0.00 | 0.00 | 83 | |
| 20260905040904 | 56 | 256 | 8.0 | 13.0 | 0.00 | 0.00 | 0.00 | 82 | |
| 20260905040803 | 56 | 255 | 8.0 | 14.0 | 0.00 | 0.00 | 0.00 | 82 | |
| 20260905040703 | 56 | 255 | 9.0 | 14.0 | 0.00 | 0.00 | 0.00 | 82 | |
| 20260905040603 | 56 | 256 | 9.0 | 14.0 | 0.00 | 0.00 | 0.00 | 83 | |
| 20260905040503 | 56 | 257 | 9.0 | 14.0 | 0.00 | 0.00 | 0.00 | 83 | |
| 20260905040403 | 56 | 259 | 9.0 | 15.0 | 0.00 | 0.00 | 0.00 | 82 | |
| 20260905040303 | 56 | 260 | 10.0 | 15.0 | 0.00 | 0.00 | 0.00 | 82 | |
| 20260905040203 | 56 | 260 | 10.0 | 16.0 | 0.00 | 0.00 | 0.00 | 82 | |
| 20260905040003 | 56 | 262 | 10.0 | 16.0 | 0.00 | 0.00 | 0.00 | 82 | |
| 20260905035903 | 56 | 261 | 9.0 | 16.0 | 0.00 | 0.00 | 0.00 | 82 | |
| 20260905035803 | 56 | 262 | 9.0 | 16.0 | 0.00 | 0.00 | 0.00 | 82 | |
| 20260905035703 | 56 | 263 | 9.0 | 16.0 | 0.00 | 0.00 | 0.00 | 83 | |
| 20260905035604 | 56 | 264 | 9.0 | 16.0 | 0.00 | 0.00 | 0.00 | 83 | |
| 20260905035524 | 56 | 265 | 9.0 | 16.0 | 0.00 | 0.00 | 0.00 | 83 | |
| 20260905035403 | 56 | 266 | 9.0 | 16.0 | 0.00 | 0.00 | 0.00 | 83 | |
| 20260905035306 | 56 | 266 | 8.0 | 16.0 | 0.00 | 0.00 | 0.00 | 83 | |
| 20260905035224 | 56 | 268 | 8.0 | 14.0 | 0.00 | 0.00 | 0.00 | 83 | |
| 20260905035103 | 56 | 268 | 8.0 | 13.0 | 0.00 | 0.00 | 0.00 | 83 | |
| 20260905035003 | 56 | 269 | 8.0 | 13.0 | 0.00 | 0.00 | 0.00 | 83 | |
| 20260905034924 | 56 | 270 | 8.0 | 13.0 | 0.00 | 0.01 | 0.00 | 83 | |
| 20260905034824 | 56 | 271 | 8.0 | 13.0 | 0.00 | 0.01 | 0.00 | 83 | |
| 20260905034703 | 56 | 271 | 8.0 | 13.0 | 0.00 | 0.01 | 0.00 | 83 | |
| 20260905034624 | 56 | 271 | 8.0 | 13.0 | 0.00 | 0.01 | 0.00 | 83 | |
| 20260905034503 | 56 | 271 | 7.0 | 13.0 | 0.00 | 0.01 | 0.00 | 83 | |
| 20260905034403 | 56 | 270 | 7.0 | 13.0 | 0.00 | 0.01 | 0.00 | 83 | |
| 20260905034303 | 57 | 270 | 7.0 | 13.0 | 0.00 | 0.01 | 0.00 | 83 | |
| 20260905034203 | 57 | 268 | 7.0 | 13.0 | 0.00 | 0.01 | 0.00 | 83 | |
| 20260905034124 | 57 | 268 | 7.0 | 13.0 | 0.00 | 0.01 | 0.00 | 83 | |
| 20260905034003 | 57 | 266 | 7.0 | 13.0 | 0.00 | 0.01 | 0.00 | 83 | |
| 20260905033903 | 57 | 265 | 7.0 | 13.0 | 0.00 | 0.01 | 0.00 | 83 | |
| 20260905033803 | 57 | 265 | 7.0 | 13.0 | 0.00 | 0.01 | 0.00 | 82 | |
| 20260905033703 | 57 | 264 | 8.0 | 13.0 | 0.00 | 0.01 | 0.00 | 82 | |
| 20260905033603 | 57 | 263 | 8.0 | 14.0 | 0.00 | 0.01 | 0.00 | 82 | |
| 20260905033503 | 57 | 261 | 8.0 | 14.0 | 0.00 | 0.01 | 0.00 | 82 | |
| 20260905033424 | 57 | 260 | 8.0 | 14.0 | 0.00 | 0.01 | 0.00 | 82 | |
| 20260905033303 | 57 | 260 | 8.0 | 14.0 | 0.00 | 0.01 | 0.00 | 82 | |
| 20260905033203 | 57 | 260 | 8.0 | 14.0 | 0.00 | 0.01 | 0.00 | 82 | |
| 20260905033103 | 57 | 261 | 9.0 | 14.0 | 0.00 | 0.01 | 0.00 | 82 | |
| 20260905033003 | 57 | 261 | 9.0 | 14.0 | 0.00 | 0.01 | 0.00 | 82 | |
| 20260905032903 | 57 | 262 | 9.0 | 14.0 | 0.00 | 0.01 | 0.00 | 83 | |
| 20260905032824 | 57 | 262 | 9.0 | 14.0 | 0.00 | 0.01 | 0.00 | 83 | |
| 20260905032703 | 57 | 262 | 10.0 | 19.0 | 0.00 | 0.01 | 0.00 | 83 | |
| 20260905032624 | 57 | 262 | 10.0 | 19.0 | 0.00 | 0.01 | 0.00 | 83 | |
| 20260905032503 | 57 | 263 | 10.0 | 19.0 | 0.00 | 0.01 | 0.00 | 83 | |
| 20260905032403 | 57 | 264 | 10.0 | 19.0 | 0.00 | 0.01 | 0.00 | 83 | |
| 20260905032306 | 57 | 265 | 10.0 | 19.0 | 0.00 | 0.01 | 0.00 | 83 | |
| 20260905032203 | 57 | 264 | 10.0 | 19.0 | 0.00 | 0.01 | 0.00 | 83 | |
| 20260905032104 | 57 | 263 | 10.0 | 19.0 | 0.00 | 0.01 | 0.00 | 83 | |
| 20260905032003 | 57 | 263 | 10.0 | 19.0 | 0.00 | 0.01 | 0.00 | 83 | |
| 20260905031903 | 57 | 263 | 10.0 | 19.0 | 0.00 | 0.01 | 0.00 | 83 | |
| 20260905031824 | 57 | 261 | 10.0 | 19.0 | 0.00 | 0.01 | 0.00 | 83 | |
| 20260905031703 | 57 | 261 | 9.0 | 19.0 | 0.00 | 0.01 | 0.00 | 84 | |
| 20260905031603 | 57 | 262 | 9.0 | 19.0 | 0.00 | 0.01 | 0.00 | 84 | |
| 20260905031503 | 57 | 264 | 9.0 | 15.0 | 0.00 | 0.01 | 0.00 | 84 | |
| 20260905031403 | 57 | 265 | 9.0 | 15.0 | 0.00 | 0.01 | 0.00 | 84 | |
| 20260905031324 | 57 | 265 | 9.0 | 15.0 | 0.00 | 0.01 | 0.00 | 84 | |
| 20260905031224 | 57 | 266 | 9.0 | 15.0 | 0.00 | 0.01 | 0.00 | 84 | |
| 20260905031103 | 57 | 267 | 9.0 | 15.0 | 0.00 | 0.02 | 0.00 | 84 | |
| 20260905031003 | 57 | 268 | 9.0 | 15.0 | 0.00 | 0.02 | 0.00 | 83 | |
| 20260905030924 | 57 | 268 | 9.0 | 14.0 | 0.00 | 0.02 | 0.00 | 83 | |
| 20260905030803 | 57 | 270 | 9.0 | 14.0 | 0.00 | 0.02 | 0.00 | 83 | |
| 20260905030703 | 57 | 270 | 9.0 | 14.0 | 0.00 | 0.02 | 0.00 | 83 | |
| 20260905030603 | 57 | 270 | 9.0 | 14.0 | 0.00 | 0.02 | 0.00 | 83 | |
| 20260905030503 | 57 | 271 | 9.0 | 14.0 | 0.00 | 0.02 | 0.00 | 83 | |
| 20260905030403 | 57 | 270 | 9.0 | 14.0 | 0.00 | 0.02 | 0.00 | 83 | |
| 20260905030303 | 57 | 270 | 9.0 | 14.0 | 0.00 | 0.02 | 0.00 | 83 | |
| 20260905030203 | 57 | 272 | 9.0 | 14.0 | 0.00 | 0.02 | 0.00 | 83 | |
| 20260905030003 | 57 | 273 | 8.0 | 14.0 | 0.00 | 0.02 | 0.00 | 82 | |
| 20260905025903 | 57 | 274 | 9.0 | 14.0 | 0.00 | 0.02 | 0.00 | 83 | |
| 20260905025824 | 57 | 275 | 9.0 | 14.0 | 0.00 | 0.02 | 0.00 | 83 | |
| 20260905025703 | 57 | 276 | 9.0 | 14.0 | 0.00 | 0.02 | 0.00 | 82 | |
| 20260905025603 | 57 | 276 | 9.0 | 14.0 | 0.00 | 0.02 | 0.00 | 82 | |
| 20260905025503 | 57 | 277 | 9.0 | 14.0 | 0.00 | 0.02 | 0.00 | 82 | |
| 20260905025403 | 57 | 276 | 10.0 | 14.0 | 0.00 | 0.02 | 0.00 | 82 | |
| 20260905025306 | 57 | 276 | 10.0 | 18.0 | 0.00 | 0.02 | 0.00 | 82 | |
| 20260905025203 | 57 | 276 | 10.0 | 18.0 | 0.00 | 0.02 | 0.00 | 82 | |
| 20260905025103 | 57 | 275 | 10.0 | 18.0 | 0.00 | 0.03 | 0.00 | 82 | |
| 20260905025003 | 57 | 276 | 10.0 | 18.0 | 0.00 | 0.03 | 0.00 | 82 | |
| 20260905024924 | 57 | 276 | 10.0 | 18.0 | 0.00 | 0.03 | 0.00 | 82 | |
| 20260905024803 | 57 | 275 | 10.0 | 18.0 | 0.00 | 0.03 | 0.00 | 82 | |
| 20260905024703 | 57 | 275 | 9.0 | 18.0 | 0.00 | 0.04 | 0.00 | 82 | |
| 20260905024603 | 57 | 275 | 9.0 | 18.0 | 0.00 | 0.04 | 0.00 | 82 | |
| 20260905024503 | 57 | 275 | 9.0 | 18.0 | 0.00 | 0.04 | 0.00 | 82 | |
| 20260905024403 | 57 | 275 | 9.0 | 18.0 | 0.00 | 0.04 | 0.00 | 82 | |
| 20260905024303 | 57 | 275 | 9.0 | 14.0 | 0.00 | 0.04 | 0.00 | 82 | |
| 20260905024203 | 57 | 275 | 9.0 | 14.0 | 0.00 | 0.04 | 0.00 | 82 | |
| 20260905024103 | 57 | 275 | 9.0 | 14.0 | 0.00 | 0.04 | 0.00 | 82 | |
| 20260905024003 | 57 | 274 | 9.0 | 13.0 | 0.00 | 0.05 | 0.00 | 82 | |
| 20260905023903 | 57 | 274 | 9.0 | 14.0 | 0.00 | 0.05 | 0.00 | 82 | |
| 20260905023803 | 57 | 273 | 9.0 | 14.0 | 0.00 | 0.05 | 0.00 | 82 | |
| 20260905023703 | 57 | 272 | 9.0 | 14.0 | 0.00 | 0.05 | 0.00 | 82 | |
| 20260905023603 | 57 | 272 | 9.0 | 14.0 | 0.00 | 0.05 | 0.00 | 82 | |
| 20260905023503 | 57 | 271 | 9.0 | 14.0 | 0.00 | 0.05 | 0.00 | 82 | |
| 20260905023403 | 57 | 271 | 9.0 | 14.0 | 0.00 | 0.05 | 0.00 | 82 | |
| 20260905023324 | 57 | 271 | 9.0 | 14.0 | 0.00 | 0.05 | 0.00 | 82 | |
| 20260905023203 | 57 | 271 | 9.0 | 14.0 | 0.00 | 0.05 | 0.00 | 82 | |
| 20260905023103 | 57 | 272 | 9.0 | 14.0 | 0.00 | 0.05 | 0.00 | 82 | |
| 20260905023003 | 57 | 272 | 9.0 | 14.0 | 0.00 | 0.05 | 0.00 | 82 | |
| 20260905022925 | 57 | 272 | 9.0 | 14.0 | 0.00 | 0.05 | 0.00 | 82 | |
| 20260905022824 | 57 | 273 | 9.0 | 14.0 | 0.00 | 0.05 | 0.00 | 82 | |
| 20260905022703 | 57 | 276 | 9.0 | 14.0 | 0.00 | 0.05 | 0.00 | 82 | |
| 20260905022603 | 57 | 276 | 9.0 | 14.0 | 0.00 | 0.05 | 0.00 | 82 | |
| 20260905022503 | 57 | 276 | 9.0 | 14.0 | 0.00 | 0.05 | 0.00 | 82 | |
| 20260905022403 | 57 | 275 | 9.0 | 14.0 | 0.00 | 0.06 | 0.00 | 82 | |
| 20260905022324 | 57 | 274 | 9.0 | 14.0 | 0.00 | 0.06 | 0.00 | 82 | |
| 20260905022203 | 57 | 274 | 9.0 | 13.0 | 0.00 | 0.06 | 0.00 | 82 | |
| 20260905022103 | 57 | 274 | 9.0 | 16.0 | 0.00 | 0.06 | 0.00 | 82 | |
| 20260905022003 | 57 | 274 | 9.0 | 16.0 | 0.00 | 0.06 | 0.00 | 82 | |
| 20260905021903 | 57 | 273 | 9.0 | 16.0 | 0.00 | 0.06 | 0.00 | 82 | |
| 20260905021803 | 57 | 272 | 9.0 | 16.0 | 0.00 | 0.06 | 0.00 | 82 | |
| 20260905021724 | 57 | 271 | 9.0 | 16.0 | 0.00 | 0.07 | 0.00 | 82 | |
| 20260905021603 | 57 | 268 | 8.0 | 16.0 | 0.00 | 0.07 | 0.00 | 82 | |
| 20260905021503 | 57 | 269 | 8.0 | 16.0 | 0.00 | 0.07 | 0.00 | 82 | |
| 20260905021403 | 57 | 268 | 8.0 | 16.0 | 0.00 | 0.07 | 0.00 | 82 | |
| 20260905021303 | 57 | 270 | 8.0 | 16.0 | 0.00 | 0.07 | 0.00 | 82 | |
| 20260905021203 | 57 | 270 | 9.0 | 16.0 | 0.00 | 0.07 | 0.00 | 82 | |
| 20260905021103 | 57 | 272 | 8.0 | 16.0 | 0.00 | 0.08 | 0.00 | 82 | |
| 20260905021003 | 57 | 273 | 8.0 | 14.0 | 0.00 | 0.08 | 0.00 | 82 | |
| 20260905020903 | 57 | 273 | 8.0 | 14.0 | 0.00 | 0.08 | 0.00 | 82 | |
| 20260905020803 | 57 | 275 | 8.0 | 14.0 | 0.00 | 0.08 | 0.00 | 81 | |
| 20260905020704 | 57 | 277 | 9.0 | 14.0 | 0.00 | 0.09 | 0.00 | 81 | |
| 20260905020603 | 57 | 277 | 8.0 | 14.0 | 0.00 | 0.09 | 0.00 | 81 | |
| 20260905020503 | 57 | 277 | 8.0 | 14.0 | 0.00 | 0.09 | 0.00 | 81 | |
| 20260905020403 | 57 | 278 | 8.0 | 14.0 | 0.00 | 0.09 | 0.00 | 81 | |
| 20260905020303 | 57 | 277 | 8.0 | 14.0 | 0.00 | 0.09 | 0.00 | 81 | |
| 20260905020203 | 57 | 277 | 8.0 | 14.0 | 0.00 | 0.09 | 0.00 | 81 | |
| 20260905020103 | 57 | 276 | 8.0 | 14.0 | 0.00 | 0.10 | 0.00 | 81 | |
| 20260905020003 | 57 | 275 | 8.0 | 14.0 | 0.00 | 0.10 | 0.00 | 81 | |
| 20260905015903 | 57 | 276 | 8.0 | 14.0 | 0.00 | 0.11 | 0.00 | 81 | |
| 20260905015824 | 57 | 276 | 8.0 | 14.0 | 0.00 | 0.11 | 0.00 | 81 | |
| 20260905015703 | 57 | 276 | 8.0 | 14.0 | 0.00 | 0.11 | 0.00 | 81 | |
| 20260905015604 | 57 | 275 | 8.0 | 14.0 | 0.00 | 0.12 | 0.00 | 81 | |
| 20260905015503 | 57 | 275 | 8.0 | 14.0 | 0.00 | 0.12 | 0.00 | 81 | |
| 20260905015403 | 57 | 274 | 8.0 | 13.0 | 0.00 | 0.12 | 0.00 | 81 | |
| 20260905015306 | 57 | 274 | 8.0 | 13.0 | 0.00 | 0.13 | 0.00 | 81 | |
| 20260905015203 | 58 | 274 | 8.0 | 13.0 | 0.00 | 0.13 | 0.00 | 81 | |
| 20260905015103 | 58 | 274 | 8.0 | 13.0 | 0.00 | 0.13 | 0.00 | 81 | |
| 20260905015003 | 58 | 273 | 8.0 | 13.0 | 0.00 | 0.13 | 0.00 | 81 | |
| 20260905014924 | 58 | 273 | 8.0 | 15.0 | 0.00 | 0.13 | 0.00 | 81 | |
| 20260905014803 | 58 | 272 | 8.0 | 15.0 | 0.00 | 0.13 | 0.00 | 81 | |
| 20260905014703 | 58 | 269 | 8.0 | 15.0 | 0.00 | 0.14 | 0.00 | 81 | |
| 20260905014603 | 58 | 268 | 8.0 | 15.0 | 0.00 | 0.14 | 0.00 | 81 | |
| 20260905014503 | 58 | 266 | 9.0 | 16.0 | 0.00 | 0.15 | 0.00 | 81 | |
| 20260905014403 | 58 | 264 | 9.0 | 16.0 | 0.00 | 0.15 | 0.00 | 82 | |
| 20260905014303 | 58 | 262 | 9.0 | 16.0 | 0.00 | 0.16 | 0.00 | 82 | |
| 20260905014203 | 58 | 260 | 10.0 | 16.0 | 0.00 | 0.16 | 0.00 | 82 | |
| 20260905014103 | 58 | 258 | 10.0 | 19.0 | 0.00 | 0.16 | 0.00 | 82 | |
| 20260905014003 | 58 | 257 | 11.0 | 19.0 | 0.00 | 0.17 | 0.00 | 82 | |
| 20260905013903 | 58 | 255 | 11.0 | 19.0 | 0.00 | 0.17 | 0.00 | 82 | |
| 20260905013803 | 58 | 254 | 11.0 | 19.0 | 0.00 | 0.17 | 0.00 | 82 | |
| 20260905013704 | 58 | 254 | 11.0 | 19.0 | 0.00 | 0.17 | 0.00 | 82 | |
| 20260905013603 | 58 | 254 | 11.0 | 19.0 | 0.00 | 0.17 | 0.00 | 82 | |
| 20260905013524 | 58 | 255 | 11.0 | 19.0 | 0.00 | 0.17 | 0.00 | 82 | |
| 20260905013424 | 58 | 257 | 11.0 | 19.0 | 0.00 | 0.17 | 0.00 | 81 | |
| 20260905013303 | 58 | 258 | 10.0 | 19.0 | 0.00 | 0.18 | 0.00 | 81 | |
| 20260905013203 | 58 | 260 | 10.0 | 19.0 | 0.00 | 0.18 | 0.00 | 82 | |
| 20260905013103 | 58 | 262 | 10.0 | 16.0 | 0.00 | 0.18 | 0.00 | 82 | |
| 20260905013003 | 58 | 265 | 10.0 | 16.0 | 0.00 | 0.18 | 0.00 | 81 | |
| 20260905012924 | 58 | 269 | 10.0 | 14.0 | 0.00 | 0.18 | 0.00 | 81 | |
| 20260905012803 | 58 | 273 | 10.0 | 14.0 | 0.00 | 0.19 | 0.00 | 81 | |
| 20260905012703 | 58 | 276 | 10.0 | 15.0 | 0.00 | 0.19 | 0.00 | 81 | |
| 20260905012604 | 58 | 279 | 10.0 | 15.0 | 0.00 | 0.19 | 0.00 | 81 | |
| 20260905012503 | 58 | 281 | 10.0 | 15.0 | 0.00 | 0.20 | 0.00 | 81 | |
| 20260905012403 | 58 | 282 | 11.0 | 15.0 | 0.00 | 0.20 | 0.00 | 81 | |
| 20260905012306 | 58 | 284 | 11.0 | 15.0 | 0.00 | 0.20 | 0.00 | 81 | |
| 20260905012203 | 58 | 285 | 11.0 | 15.0 | 0.00 | 0.20 | 0.00 | 81 | |
| 20260905012103 | 58 | 286 | 11.0 | 15.0 | 0.00 | 0.20 | 0.00 | 81 | |
| 20260905012003 | 58 | 287 | 10.0 | 15.0 | 0.00 | 0.20 | 0.00 | 81 | |
| 20260905011903 | 58 | 286 | 10.0 | 15.0 | 0.00 | 0.20 | 0.00 | 81 | |
| 20260905011803 | 58 | 286 | 10.0 | 15.0 | 0.00 | 0.21 | 0.00 | 81 | |
| 20260905011704 | 58 | 285 | 10.0 | 14.0 | 0.00 | 0.21 | 0.00 | 81 | |
| 20260905011624 | 58 | 284 | 10.0 | 14.0 | 0.00 | 0.21 | 0.00 | 81 | |
| 20260905011524 | 58 | 282 | 9.0 | 13.0 | 0.00 | 0.21 | 0.00 | 81 | |
| 20260905011403 | 58 | 280 | 9.0 | 15.0 | 0.00 | 0.21 | 0.00 | 81 | |
| 20260905011304 | 58 | 277 | 9.0 | 15.0 | 0.00 | 0.21 | 0.00 | 81 | |
| 20260905011225 | 58 | 276 | 9.0 | 15.0 | 0.00 | 0.22 | 0.00 | 81 | |
| 20260905011103 | 58 | 275 | 9.0 | 15.0 | 0.00 | 0.22 | 0.00 | 81 | |
| 20260905011003 | 58 | 273 | 9.0 | 15.0 | 0.00 | 0.22 | 0.00 | 81 | |
| 20260905010903 | 58 | 272 | 9.0 | 15.0 | 0.00 | 0.22 | 0.00 | 81 | |
| 20260905010804 | 58 | 272 | 9.0 | 15.0 | 0.00 | 0.22 | 0.00 | 81 | |
| 20260905010703 | 58 | 272 | 9.0 | 15.0 | 0.00 | 0.22 | 0.00 | 81 | |
| 20260905010603 | 58 | 273 | 9.0 | 15.0 | 0.00 | 0.22 | 0.00 | 81 | |
| 20260905010503 | 58 | 275 | 9.0 | 15.0 | 0.00 | 0.22 | 0.00 | 81 | |
| 20260905010403 | 58 | 277 | 9.0 | 13.0 | 0.00 | 0.23 | 0.00 | 81 | |
| 20260905010303 | 58 | 279 | 9.0 | 13.0 | 0.00 | 0.23 | 0.00 | 81 | |
| 20260905010203 | 58 | 278 | 9.0 | 15.0 | 0.00 | 0.23 | 0.00 | 81 | |
| 20260905010103 | 58 | 279 | 9.0 | 15.0 | 0.00 | 0.23 | 0.00 | 81 | |
| 20260905010003 | 58 | 279 | 9.0 | 15.0 | 0.00 | 0.23 | 0.00 | 81 | |
| 20260905005924 | 58 | 281 | 9.0 | 15.0 | 0.00 | 0.24 | 0.00 | 81 | |
| 20260905005803 | 58 | 280 | 9.0 | 15.0 | 0.00 | 0.24 | 0.00 | 81 | |
| 20260905005703 | 58 | 280 | 9.0 | 15.0 | 0.00 | 0.24 | 0.00 | 81 | |
| 20260905005603 | 58 | 279 | 9.0 | 15.0 | 0.00 | 0.24 | 0.00 | 81 | |
| 20260905005503 | 58 | 278 | 9.0 | 15.0 | 0.00 | 0.24 | 0.00 | 81 | |
| 20260905005404 | 58 | 277 | 9.0 | 15.0 | 0.00 | 0.24 | 0.00 | 81 | |
| 20260905005306 | 58 | 278 | 9.0 | 15.0 | 0.00 | 0.24 | 0.00 | 81 | |
| 20260905005203 | 58 | 279 | 9.0 | 14.0 | 0.00 | 0.24 | 0.00 | 81 | |
| 20260905005103 | 58 | 280 | 9.0 | 14.0 | 0.00 | 0.24 | 0.00 | 81 | |
| 20260905005003 | 58 | 279 | 9.0 | 14.0 | 0.00 | 0.24 | 0.00 | 81 | |
| 20260905004924 | 58 | 279 | 9.0 | 14.0 | 0.00 | 0.24 | 0.00 | 81 | |
| 20260905004803 | 58 | 279 | 9.0 | 14.0 | 0.00 | 0.24 | 0.00 | 81 | |
| 20260905004703 | 58 | 281 | 10.0 | 14.0 | 0.00 | 0.24 | 0.00 | 81 | |
| 20260905004603 | 59 | 281 | 10.0 | 14.0 | 0.00 | 0.24 | 0.00 | 81 | |
| 20260905004503 | 59 | 281 | 10.0 | 15.0 | 0.00 | 0.24 | 0.00 | 81 | |
| 20260905004403 | 59 | 281 | 10.0 | 15.0 | 0.00 | 0.24 | 0.00 | 81 | |
| 20260905004303 | 59 | 281 | 10.0 | 15.0 | 0.00 | 0.24 | 0.00 | 81 | |
| 20260905004203 | 59 | 281 | 10.0 | 15.0 | 0.00 | 0.24 | 0.00 | 81 | |
| 20260905004103 | 59 | 281 | 10.0 | 15.0 | 0.00 | 0.24 | 0.00 | 81 | |
| 20260905004003 | 59 | 280 | 10.0 | 15.0 | 0.00 | 0.24 | 0.00 | 81 | |
| 20260905003903 | 59 | 280 | 10.0 | 15.0 | 0.00 | 0.24 | 0.00 | 81 | |
| 20260905003803 | 59 | 280 | 10.0 | 15.0 | 0.00 | 0.24 | 0.00 | 81 | |
| 20260905003703 | 59 | 279 | 10.0 | 15.0 | 0.00 | 0.24 | 0.00 | 82 | |
| 20260905003603 | 59 | 278 | 10.0 | 15.0 | 0.00 | 0.24 | 0.00 | 82 | |
| 20260905003503 | 59 | 276 | 10.0 | 15.0 | 0.00 | 0.24 | 0.00 | 82 | |
| 20260905003403 | 59 | 275 | 10.0 | 15.0 | 0.00 | 0.24 | 0.00 | 82 | |
| 20260905003303 | 59 | 275 | 10.0 | 15.0 | 0.00 | 0.24 | 0.00 | 81 | |
| 20260905003203 | 59 | 276 | 10.0 | 15.0 | 0.00 | 0.24 | 0.00 | 82 | |
| 20260905003103 | 59 | 275 | 10.0 | 16.0 | 0.00 | 0.24 | 0.00 | 82 | |
| 20260905003003 | 59 | 275 | 10.0 | 16.0 | 0.00 | 0.24 | 0.00 | 82 | |
| 20260905002903 | 59 | 274 | 10.0 | 16.0 | 0.00 | 0.25 | 0.00 | 82 | |
| 20260905002824 | 59 | 275 | 10.0 | 16.0 | 0.00 | 0.25 | 0.00 | 82 | |
| 20260905002703 | 59 | 277 | 10.0 | 16.0 | 0.00 | 0.25 | 0.00 | 81 | |
| 20260905002624 | 59 | 277 | 10.0 | 16.0 | 0.00 | 0.25 | 0.00 | 81 | |
| 20260905002524 | 59 | 279 | 10.0 | 16.0 | 0.00 | 0.25 | 0.00 | 81 | |
| 20260905002403 | 59 | 280 | 10.0 | 16.0 | 0.00 | 0.25 | 0.00 | 81 | |
| 20260905002306 | 59 | 280 | 11.0 | 16.0 | 0.00 | 0.25 | 0.00 | 81 | |
| 20260905002203 | 59 | 279 | 11.0 | 16.0 | 0.00 | 0.25 | 0.00 | 81 | |
| 20260905002103 | 59 | 279 | 11.0 | 16.0 | 0.00 | 0.25 | 0.00 | 81 | |
| 20260905002024 | 59 | 279 | 11.0 | 19.0 | 0.00 | 0.25 | 0.00 | 81 | |
| 20260905001903 | 59 | 280 | 12.0 | 19.0 | 0.00 | 0.25 | 0.00 | 80 | |
| 20260905001803 | 59 | 280 | 12.0 | 19.0 | 0.00 | 0.25 | 0.00 | 80 | |
| 20260905001703 | 59 | 278 | 12.0 | 19.0 | 0.00 | 0.25 | 0.00 | 81 | |
| 20260905001624 | 59 | 277 | 12.0 | 19.0 | 0.00 | 0.25 | 0.00 | 81 | |
| 20260905001504 | 59 | 276 | 11.0 | 19.0 | 0.00 | 0.25 | 0.00 | 81 | |
| 20260905001405 | 59 | 274 | 11.0 | 19.0 | 0.00 | 0.25 | 0.00 | 81 | |
| 20260905001303 | 59 | 273 | 11.0 | 19.0 | 0.00 | 0.25 | 0.00 | 81 | |
| 20260905001203 | 59 | 272 | 11.0 | 19.0 | 0.00 | 0.25 | 0.00 | 81 | |
| 20260905001103 | 59 | 268 | 11.0 | 19.0 | 0.00 | 0.25 | 0.00 | 81 | |
| 20260905001003 | 59 | 269 | 11.0 | 19.0 | 0.00 | 0.26 | 0.00 | 81 | |
| 20260905000903 | 59 | 266 | 11.0 | 19.0 | 0.00 | 0.26 | 0.00 | 82 | |
| 20260905000824 | 59 | 266 | 11.0 | 19.0 | 0.00 | 0.26 | 0.00 | 82 | |
| 20260905000704 | 59 | 265 | 11.0 | 19.0 | 0.00 | 0.26 | 0.00 | 82 | |
| 20260905000624 | 59 | 264 | 11.0 | 19.0 | 0.00 | 0.26 | 0.00 | 82 | |
| 20260905000503 | 59 | 264 | 12.0 | 19.0 | 0.00 | 0.26 | 0.00 | 81 | |
| 20260905000403 | 59 | 265 | 12.0 | 19.0 | 0.00 | 0.26 | 0.00 | 81 | |
| 20260905000303 | 59 | 266 | 12.0 | 19.0 | 0.00 | 0.26 | 0.00 | 81 | |
| 20260905000226 | 59 | 266 | 12.0 | 19.0 | 0.00 | 0.26 | 0.00 | 81 | |
| 20260905000003 | 59 | 265 | 11.0 | 19.0 | 0.00 | 0.26 | 0.00 | 82 | |
| 20260904235903 | 59 | 265 | 11.0 | 19.0 | 0.00 | 0.26 | 0.00 | 82 | |
| 20260904235803 | 59 | 263 | 11.0 | 19.0 | 0.00 | 0.27 | 0.00 | 82 | |
| 20260904235724 | 59 | 261 | 11.0 | 19.0 | 0.00 | 0.27 | 0.00 | 82 | |
| 20260904235603 | 59 | 261 | 11.0 | 19.0 | 0.00 | 0.27 | 0.00 | 82 | |
| 20260904235504 | 59 | 258 | 11.0 | 19.0 | 0.00 | 0.27 | 0.00 | 82 | |
| 20260904235404 | 59 | 257 | 11.0 | 19.0 | 0.00 | 0.27 | 0.00 | 82 | |
| 20260904235306 | 59 | 255 | 11.0 | 19.0 | 0.00 | 0.27 | 0.00 | 82 | |
| 20260904235224 | 59 | 254 | 11.0 | 19.0 | 0.00 | 0.27 | 0.00 | 82 | |
| 20260904235103 | 59 | 253 | 12.0 | 19.0 | 0.00 | 0.27 | 0.00 | 82 | |
| 20260904235003 | 59 | 251 | 12.0 | 18.0 | 0.00 | 0.27 | 0.00 | 82 | |
| 20260904234903 | 59 | 251 | 12.0 | 18.0 | 0.00 | 0.27 | 0.00 | 82 | |
| 20260904234803 | 59 | 251 | 12.0 | 16.0 | 0.00 | 0.27 | 0.00 | 82 | |
| 20260904234724 | 59 | 253 | 12.0 | 16.0 | 0.00 | 0.27 | 0.00 | 82 | |
| 20260904234603 | 59 | 251 | 12.0 | 16.0 | 0.00 | 0.27 | 0.00 | 82 | |
| 20260904234524 | 59 | 251 | 12.0 | 16.0 | 0.00 | 0.27 | 0.00 | 82 | |
| 20260904234403 | 59 | 251 | 12.0 | 16.0 | 0.00 | 0.27 | 0.00 | 82 | |
| 20260904234325 | 59 | 251 | 12.0 | 15.0 | 0.00 | 0.27 | 0.00 | 82 | |
| 20260904234224 | 59 | 251 | 12.0 | 16.0 | 0.00 | 0.27 | 0.00 | 82 | |
| 20260904234103 | 59 | 251 | 11.0 | 16.0 | 0.00 | 0.28 | 0.00 | 83 | |
| 20260904234003 | 59 | 252 | 11.0 | 16.0 | 0.00 | 0.28 | 0.00 | 83 | |
| 20260904233903 | 59 | 253 | 11.0 | 16.0 | 0.00 | 0.28 | 0.00 | 83 | |
| 20260904233803 | 59 | 253 | 11.0 | 16.0 | 0.00 | 0.28 | 0.00 | 83 | |
| 20260904233703 | 59 | 253 | 11.0 | 16.0 | 0.00 | 0.28 | 0.00 | 83 | |
| 20260904233603 | 59 | 255 | 10.0 | 16.0 | 0.00 | 0.28 | 0.00 | 83 | |
| 20260904233503 | 59 | 255 | 10.0 | 16.0 | 0.00 | 0.28 | 0.00 | 83 | |
| 20260904233403 | 59 | 256 | 10.0 | 16.0 | 0.00 | 0.28 | 0.00 | 83 | |
| 20260904233303 | 59 | 255 | 10.0 | 15.0 | 0.00 | 0.28 | 0.00 | 83 | |
| 20260904233203 | 59 | 256 | 11.0 | 15.0 | 0.00 | 0.28 | 0.00 | 83 | |
| 20260904233103 | 59 | 256 | 11.0 | 19.0 | 0.00 | 0.28 | 0.00 | 83 | |
| 20260904233003 | 59 | 257 | 11.0 | 19.0 | 0.00 | 0.28 | 0.00 | 82 | |
| 20260904232903 | 59 | 256 | 11.0 | 19.0 | 0.00 | 0.28 | 0.00 | 82 | |
| 20260904232803 | 59 | 256 | 11.0 | 19.0 | 0.00 | 0.28 | 0.00 | 82 | |
| 20260904232703 | 59 | 255 | 12.0 | 19.0 | 0.00 | 0.28 | 0.00 | 82 | |
| 20260904232603 | 59 | 254 | 12.0 | 19.0 | 0.00 | 0.28 | 0.00 | 82 | |
| 20260904232503 | 59 | 253 | 12.0 | 19.0 | 0.00 | 0.28 | 0.00 | 82 | |
| 20260904232403 | 59 | 252 | 12.0 | 19.0 | 0.00 | 0.28 | 0.00 | 82 | |
| 20260904232306 | 59 | 252 | 13.0 | 19.0 | 0.00 | 0.28 | 0.00 | 82 | |
| 20260904232203 | 59 | 251 | 12.0 | 19.0 | 0.00 | 0.28 | 0.00 | 82 | |
| 20260904232103 | 59 | 250 | 12.0 | 19.0 | 0.00 | 0.28 | 0.00 | 81 | |
| 20260904232003 | 59 | 249 | 13.0 | 19.0 | 0.00 | 0.28 | 0.00 | 81 | |
| 20260904231904 | 59 | 248 | 13.0 | 19.0 | 0.00 | 0.28 | 0.00 | 81 | |
| 20260904231803 | 60 | 248 | 13.0 | 19.0 | 0.00 | 0.28 | 0.00 | 81 | |
| 20260904231703 | 60 | 246 | 13.0 | 19.0 | 0.00 | 0.28 | 0.00 | 80 | |
| 20260904231603 | 60 | 246 | 13.0 | 19.0 | 0.00 | 0.28 | 0.00 | 80 | |
| 20260904231503 | 60 | 246 | 13.0 | 19.0 | 0.00 | 0.28 | 0.00 | 80 | |
| 20260904231405 | 60 | 246 | 12.0 | 19.0 | 0.00 | 0.28 | 0.00 | 80 | |
| 20260904231303 | 60 | 246 | 12.0 | 19.0 | 0.00 | 0.28 | 0.00 | 79 | |
| 20260904231203 | 60 | 246 | 12.0 | 19.0 | 0.00 | 0.28 | 0.00 | 79 | |
| 20260904231124 | 60 | 247 | 12.0 | 19.0 | 0.00 | 0.28 | 0.00 | 79 | |
| 20260904231003 | 60 | 250 | 11.0 | 19.0 | 0.00 | 0.28 | 0.00 | 78 | |
| 20260904230903 | 60 | 253 | 11.0 | 19.0 | 0.00 | 0.28 | 0.00 | 78 | |
| 20260904230803 | 60 | 256 | 11.0 | 21.0 | 0.00 | 0.28 | 0.00 | 78 | |
| 20260904230703 | 60 | 260 | 11.0 | 21.0 | 0.00 | 0.28 | 0.00 | 78 | |
| 20260904230603 | 60 | 264 | 11.0 | 21.0 | 0.00 | 0.28 | 0.00 | 78 | |
| 20260904230503 | 60 | 267 | 11.0 | 21.0 | 0.00 | 0.28 | 0.00 | 77 | |
| 20260904230403 | 60 | 269 | 11.0 | 21.0 | 0.00 | 0.28 | 0.00 | 77 | |
| 20260904230303 | 60 | 271 | 11.0 | 21.0 | 0.00 | 0.28 | 0.00 | 77 | |
| 20260904230203 | 60 | 274 | 12.0 | 21.0 | 0.00 | 0.28 | 0.00 | 77 | |
| 20260904230003 | 61 | 274 | 12.0 | 21.0 | 0.00 | 0.28 | 0.00 | 77 | |
| 20260904225903 | 61 | 275 | 12.0 | 21.0 | 0.00 | 0.28 | 0.28 | 77 | |
| 20260904225803 | 61 | 276 | 12.0 | 20.0 | 0.00 | 0.28 | 0.28 | 77 | |
| 20260904225703 | 61 | 276 | 12.0 | 20.0 | 0.00 | 0.28 | 0.28 | 77 | |
| 20260904225624 | 61 | 276 | 12.0 | 20.0 | 0.00 | 0.28 | 0.28 | 77 | |
| 20260904225503 | 61 | 275 | 12.0 | 23.0 | 0.00 | 0.29 | 0.28 | 77 | |
| 20260904225424 | 61 | 275 | 12.0 | 23.0 | 0.00 | 0.29 | 0.28 | 77 | |
| 20260904225305 | 61 | 276 | 12.0 | 23.0 | 0.00 | 0.29 | 0.28 | 77 | |
| 20260904225203 | 60 | 276 | 12.0 | 23.0 | 0.00 | 0.29 | 0.28 | 77 | |
| 20260904225104 | 61 | 276 | 13.0 | 23.0 | 0.00 | 0.29 | 0.28 | 77 | |
| 20260904225003 | 61 | 277 | 13.0 | 23.0 | 0.00 | 0.29 | 0.28 | 77 | |
| 20260904224903 | 61 | 277 | 13.0 | 23.0 | 0.00 | 0.29 | 0.28 | 77 | |
| 20260904224803 | 61 | 276 | 13.0 | 23.0 | 0.00 | 0.29 | 0.28 | 77 | |
| 20260904224703 | 61 | 276 | 14.0 | 23.0 | 0.00 | 0.29 | 0.28 | 77 | |
| 20260904224603 | 61 | 277 | 14.0 | 23.0 | 0.00 | 0.29 | 0.28 | 77 | |
| 20260904224503 | 61 | 277 | 14.0 | 23.0 | 0.00 | 0.29 | 0.28 | 77 | |
| 20260904224403 | 61 | 277 | 14.0 | 23.0 | 0.00 | 0.29 | 0.28 | 77 | |
| 20260904224324 | 61 | 277 | 14.0 | 23.0 | 0.00 | 0.29 | 0.28 | 77 | |
| 20260904224224 | 61 | 278 | 14.0 | 23.0 | 0.00 | 0.29 | 0.28 | 77 | |
| 20260904224124 | 61 | 278 | 13.0 | 23.0 | 0.00 | 0.29 | 0.28 | 77 | |
| 20260904224003 | 61 | 277 | 13.0 | 23.0 | 0.00 | 0.29 | 0.28 | 77 | |
| 20260904223903 | 61 | 278 | 13.0 | 23.0 | 0.00 | 0.29 | 0.28 | 77 | |
| 20260904223804 | 61 | 279 | 14.0 | 23.0 | 0.00 | 0.29 | 0.28 | 77 | |
| 20260904223724 | 61 | 279 | 14.0 | 23.0 | 0.00 | 0.29 | 0.28 | 77 | |
| 20260904223603 | 61 | 279 | 14.0 | 23.0 | 0.00 | 0.29 | 0.28 | 77 | |
| 20260904223503 | 61 | 279 | 15.0 | 23.0 | 0.00 | 0.29 | 0.28 | 77 | |
| 20260904223424 | 61 | 280 | 15.0 | 23.0 | 0.00 | 0.29 | 0.28 | 77 | |
| 20260904223303 | 61 | 280 | 14.0 | 23.0 | 0.00 | 0.29 | 0.28 | 77 | |
| 20260904223203 | 61 | 278 | 15.0 | 23.0 | 0.00 | 0.29 | 0.28 | 77 | |
| 20260904223103 | 61 | 277 | 14.0 | 23.0 | 0.00 | 0.29 | 0.28 | 77 | |
| 20260904223024 | 61 | 277 | 14.0 | 23.0 | 0.00 | 0.29 | 0.28 | 77 | |
| 20260904222903 | 61 | 275 | 14.0 | 23.0 | 0.00 | 0.29 | 0.28 | 77 | |
| 20260904222824 | 61 | 274 | 14.0 | 23.0 | 0.00 | 0.29 | 0.28 | 77 | |
| 20260904222703 | 61 | 272 | 14.0 | 23.0 | 0.00 | 0.29 | 0.28 | 77 | |
| 20260904222624 | 61 | 269 | 14.0 | 23.0 | 0.00 | 0.29 | 0.28 | 77 | |
| 20260904222503 | 61 | 265 | 12.0 | 23.0 | 0.00 | 0.29 | 0.28 | 77 | |
| 20260904222424 | 61 | 263 | 12.0 | 22.0 | 0.00 | 0.29 | 0.28 | 77 | |
| 20260904222306 | 61 | 260 | 12.0 | 20.0 | 0.00 | 0.29 | 0.28 | 77 | |
| 20260904222203 | 61 | 258 | 12.0 | 20.0 | 0.00 | 0.29 | 0.28 | 77 | |
| 20260904222103 | 61 | 257 | 12.0 | 20.0 | 0.00 | 0.29 | 0.28 | 77 | |
| 20260904222003 | 61 | 255 | 12.0 | 20.0 | 0.00 | 0.29 | 0.28 | 77 | |
| 20260904221903 | 61 | 256 | 12.0 | 20.0 | 0.00 | 0.29 | 0.28 | 77 | |
| 20260904221803 | 61 | 255 | 12.0 | 20.0 | 0.00 | 0.29 | 0.28 | 78 | |
| 20260904221703 | 61 | 256 | 12.0 | 20.0 | 0.00 | 0.29 | 0.28 | 78 | |
| 20260904221603 | 61 | 258 | 12.0 | 20.0 | 0.00 | 0.29 | 0.28 | 77 | |
| 20260904221503 | 61 | 259 | 11.0 | 20.0 | 0.00 | 0.29 | 0.28 | 78 | |
| 20260904221403 | 61 | 259 | 12.0 | 20.0 | 0.00 | 0.29 | 0.28 | 78 | |
| 20260904221324 | 61 | 258 | 11.0 | 20.0 | 0.00 | 0.29 | 0.28 | 78 | |
| 20260904221203 | 61 | 260 | 11.0 | 20.0 | 0.00 | 0.29 | 0.28 | 78 | |
| 20260904221124 | 61 | 259 | 11.0 | 20.0 | 0.00 | 0.29 | 0.28 | 78 | |
| 20260904221003 | 61 | 259 | 11.0 | 20.0 | 0.00 | 0.29 | 0.28 | 78 | |
| 20260904220924 | 61 | 259 | 11.0 | 20.0 | 0.00 | 0.29 | 0.28 | 78 | |
| 20260904220803 | 61 | 258 | 11.0 | 20.0 | 0.00 | 0.29 | 0.28 | 78 | |
| 20260904220703 | 61 | 256 | 12.0 | 20.0 | 0.00 | 0.29 | 0.28 | 78 | |
| 20260904220603 | 61 | 255 | 12.0 | 20.0 | 0.00 | 0.29 | 0.28 | 77 | |
| 20260904220503 | 61 | 254 | 12.0 | 20.0 | 0.00 | 0.29 | 0.28 | 77 | |
| 20260904220403 | 61 | 254 | 11.0 | 20.0 | 0.00 | 0.29 | 0.28 | 77 | |
| 20260904220303 | 61 | 253 | 11.0 | 20.0 | 0.00 | 0.29 | 0.28 | 77 | |
| 20260904220203 | 61 | 251 | 11.0 | 20.0 | 0.00 | 0.29 | 0.28 | 77 | |
| 20260904220003 | 61 | 252 | 11.0 | 20.0 | 0.00 | 0.29 | 0.28 | 77 | |
| 20260904215924 | 61 | 252 | 11.0 | 20.0 | 0.00 | 0.29 | 0.28 | 77 | |
| 20260904215803 | 61 | 251 | 10.0 | 20.0 | 0.00 | 0.29 | 0.28 | 77 | |
| 20260904215703 | 61 | 252 | 10.0 | 20.0 | 0.00 | 0.29 | 0.28 | 77 | |
| 20260904215603 | 61 | 252 | 10.0 | 18.0 | 0.00 | 0.29 | 0.28 | 77 | |
| 20260904215503 | 61 | 252 | 10.0 | 18.0 | 0.00 | 0.29 | 0.28 | 77 | |
| 20260904215403 | 61 | 252 | 10.0 | 18.0 | 0.00 | 0.29 | 0.28 | 77 | |
| 20260904215325 | 61 | 252 | 10.0 | 18.0 | 0.00 | 0.29 | 0.28 | 77 | |
| 20260904215203 | 61 | 254 | 9.0 | 18.0 | 0.00 | 0.29 | 0.28 | 77 | |
| 20260904215124 | 61 | 254 | 9.0 | 18.0 | 0.00 | 0.29 | 0.28 | 77 | |
| 20260904215003 | 61 | 253 | 10.0 | 18.0 | 0.00 | 0.29 | 0.28 | 77 | |
| 20260904214903 | 61 | 253 | 10.0 | 19.0 | 0.00 | 0.29 | 0.28 | 77 | |
| 20260904214803 | 61 | 253 | 10.0 | 19.0 | 0.00 | 0.29 | 0.28 | 77 | |
| 20260904214703 | 61 | 252 | 10.0 | 19.0 | 0.00 | 0.29 | 0.28 | 77 | |
| 20260904214604 | 61 | 253 | 10.0 | 19.0 | 0.00 | 0.29 | 0.28 | 77 | |
| 20260904214503 | 61 | 254 | 10.0 | 19.0 | 0.00 | 0.29 | 0.28 | 76 | |
| 20260904214424 | 61 | 254 | 10.0 | 19.0 | 0.00 | 0.29 | 0.28 | 76 | |
| 20260904214303 | 61 | 254 | 10.0 | 19.0 | 0.00 | 0.29 | 0.28 | 76 | |
| 20260904214204 | 61 | 254 | 10.0 | 19.0 | 0.00 | 0.29 | 0.28 | 76 | |
| 20260904214103 | 61 | 256 | 10.0 | 19.0 | 0.00 | 0.29 | 0.28 | 76 | |
| 20260904214003 | 61 | 256 | 10.0 | 19.0 | 0.00 | 0.29 | 0.28 | 76 | |
| 20260904213903 | 61 | 257 | 9.0 | 15.0 | 0.00 | 0.29 | 0.28 | 76 | |
| 20260904213824 | 61 | 256 | 9.0 | 15.0 | 0.00 | 0.29 | 0.28 | 76 | |
| 20260904213703 | 61 | 256 | 10.0 | 15.0 | 0.00 | 0.29 | 0.28 | 76 | |
| 20260904213603 | 61 | 255 | 10.0 | 15.0 | 0.00 | 0.29 | 0.28 | 77 | |
| 20260904213524 | 61 | 254 | 10.0 | 15.0 | 0.00 | 0.29 | 0.28 | 77 | |
| 20260904213403 | 61 | 255 | 10.0 | 15.0 | 0.00 | 0.29 | 0.28 | 77 | |
| 20260904213303 | 61 | 254 | 10.0 | 14.0 | 0.00 | 0.29 | 0.28 | 77 | |
| 20260904213204 | 61 | 255 | 10.0 | 14.0 | 0.00 | 0.29 | 0.28 | 77 | |
| 20260904213103 | 61 | 254 | 9.0 | 14.0 | 0.00 | 0.29 | 0.28 | 77 | |
| 20260904213003 | 61 | 257 | 10.0 | 14.0 | 0.00 | 0.29 | 0.28 | 77 | |
| 20260904212903 | 61 | 257 | 10.0 | 18.0 | 0.00 | 0.29 | 0.28 | 77 | |
| 20260904212804 | 61 | 258 | 10.0 | 18.0 | 0.00 | 0.29 | 0.28 | 77 | |
| 20260904212703 | 61 | 260 | 10.0 | 18.0 | 0.00 | 0.29 | 0.28 | 77 | |
| 20260904212603 | 61 | 260 | 9.0 | 18.0 | 0.00 | 0.29 | 0.28 | 77 | |
| 20260904212503 | 61 | 261 | 9.0 | 18.0 | 0.00 | 0.29 | 0.28 | 77 | |
| 20260904212403 | 61 | 262 | 10.0 | 18.0 | 0.00 | 0.29 | 0.28 | 76 | |
| 20260904212306 | 61 | 262 | 10.0 | 18.0 | 0.00 | 0.29 | 0.28 | 76 | |
| 20260904212203 | 61 | 263 | 10.0 | 18.0 | 0.00 | 0.29 | 0.28 | 76 | |
| 20260904212103 | 61 | 262 | 10.0 | 18.0 | 0.00 | 0.29 | 0.28 | 76 | |
| 20260904212024 | 61 | 261 | 10.0 | 18.0 | 0.00 | 0.29 | 0.28 | 76 | |
| 20260904211924 | 61 | 261 | 10.0 | 16.0 | 0.00 | 0.29 | 0.28 | 76 | |
| 20260904211803 | 61 | 261 | 10.0 | 16.0 | 0.00 | 0.29 | 0.28 | 76 | |
| 20260904211703 | 61 | 260 | 10.0 | 16.0 | 0.00 | 0.29 | 0.28 | 76 | |
| 20260904211603 | 61 | 259 | 10.0 | 16.0 | 0.00 | 0.29 | 0.28 | 76 | |
| 20260904211503 | 61 | 258 | 10.0 | 16.0 | 0.00 | 0.29 | 0.28 | 76 | |
| 20260904211403 | 61 | 258 | 10.0 | 16.0 | 0.00 | 0.29 | 0.28 | 76 | |
| 20260904211303 | 61 | 257 | 11.0 | 16.0 | 0.00 | 0.29 | 0.28 | 76 | |
| 20260904211203 | 61 | 256 | 11.0 | 19.0 | 0.00 | 0.29 | 0.28 | 76 | |
| 20260904211103 | 61 | 256 | 11.0 | 19.0 | 0.00 | 0.29 | 0.28 | 76 | |
| 20260904211024 | 61 | 256 | 11.0 | 19.0 | 0.00 | 0.29 | 0.28 | 76 | |
| 20260904210903 | 61 | 256 | 11.0 | 19.0 | 0.00 | 0.29 | 0.28 | 76 | |
| 20260904210803 | 61 | 255 | 11.0 | 19.0 | 0.00 | 0.29 | 0.28 | 76 | |
| 20260904210703 | 61 | 256 | 11.0 | 19.0 | 0.00 | 0.29 | 0.28 | 76 | |
| 20260904210603 | 61 | 255 | 11.0 | 19.0 | 0.00 | 0.29 | 0.28 | 76 | |
| 20260904210503 | 61 | 254 | 11.0 | 19.0 | 0.00 | 0.29 | 0.28 | 76 | |
| 20260904210403 | 61 | 254 | 11.0 | 19.0 | 0.00 | 0.29 | 0.28 | 76 | |
| 20260904210303 | 61 | 255 | 11.0 | 19.0 | 0.00 | 0.29 | 0.28 | 76 | |
| 20260904210224 | 61 | 255 | 11.0 | 18.0 | 0.00 | 0.29 | 0.28 | 76 | |
| 20260904210024 | 61 | 254 | 12.0 | 18.0 | 0.00 | 0.29 | 0.28 | 76 | |
| 20260904205903 | 61 | 255 | 12.0 | 18.0 | 0.00 | 0.29 | 0.28 | 75 | |
| 20260904205803 | 61 | 255 | 12.0 | 18.0 | 0.00 | 0.29 | 0.28 | 76 | |
| 20260904205703 | 61 | 254 | 12.0 | 18.0 | 0.00 | 0.29 | 0.28 | 75 | |
| 20260904205603 | 61 | 254 | 12.0 | 18.0 | 0.00 | 0.29 | 0.28 | 75 | |
| 20260904205503 | 61 | 255 | 12.0 | 20.0 | 0.00 | 0.29 | 0.28 | 75 | |
| 20260904205403 | 61 | 255 | 12.0 | 20.0 | 0.00 | 0.29 | 0.28 | 75 | |
| 20260904205305 | 61 | 254 | 12.0 | 20.0 | 0.00 | 0.29 | 0.28 | 75 | |
| 20260904205203 | 61 | 255 | 12.0 | 20.0 | 0.00 | 0.29 | 0.28 | 75 | |
| 20260904205103 | 61 | 255 | 12.0 | 20.0 | 0.00 | 0.29 | 0.28 | 75 | |
| 20260904205003 | 61 | 255 | 12.0 | 20.0 | 0.00 | 0.29 | 0.28 | 75 | |
| 20260904204903 | 61 | 254 | 12.0 | 20.0 | 0.00 | 0.29 | 0.28 | 75 | |
| 20260904204803 | 61 | 254 | 12.0 | 20.0 | 0.00 | 0.29 | 0.28 | 75 | |
| 20260904204703 | 61 | 255 | 11.0 | 20.0 | 0.00 | 0.29 | 0.28 | 75 | |
| 20260904204603 | 61 | 255 | 12.0 | 20.0 | 0.00 | 0.29 | 0.28 | 75 | |
| 20260904204503 | 61 | 254 | 12.0 | 22.0 | 0.00 | 0.29 | 0.28 | 74 | |
| 20260904204403 | 61 | 253 | 12.0 | 22.0 | 0.00 | 0.29 | 0.28 | 74 | |
| 20260904204324 | 61 | 253 | 12.0 | 22.0 | 0.00 | 0.29 | 0.28 | 74 | |
| 20260904204225 | 61 | 252 | 12.0 | 22.0 | 0.00 | 0.29 | 0.28 | 74 | |
| 20260904204103 | 61 | 252 | 12.0 | 22.0 | 0.00 | 0.29 | 0.28 | 74 | |
| 20260904204003 | 61 | 251 | 12.0 | 22.0 | 0.00 | 0.29 | 0.28 | 74 | |
| 20260904203903 | 61 | 251 | 12.0 | 22.0 | 0.00 | 0.29 | 0.28 | 75 | |
| 20260904203804 | 61 | 250 | 12.0 | 22.0 | 0.00 | 0.29 | 0.28 | 75 | |
| 20260904203703 | 61 | 250 | 12.0 | 22.0 | 0.00 | 0.29 | 0.28 | 74 | |
| 20260904203603 | 61 | 250 | 11.0 | 22.0 | 0.00 | 0.29 | 0.28 | 75 | |
| 20260904203503 | 61 | 251 | 11.0 | 20.0 | 0.00 | 0.29 | 0.28 | 75 | |
| 20260904203424 | 61 | 252 | 11.0 | 20.0 | 0.00 | 0.29 | 0.28 | 75 | |
| 20260904203303 | 61 | 252 | 10.0 | 19.0 | 0.00 | 0.29 | 0.28 | 75 | |
| 20260904203203 | 61 | 253 | 10.0 | 16.0 | 0.00 | 0.29 | 0.28 | 75 | |
| 20260904203103 | 61 | 253 | 10.0 | 16.0 | 0.00 | 0.29 | 0.28 | 75 | |
| 20260904203003 | 61 | 254 | 10.0 | 16.0 | 0.00 | 0.29 | 0.28 | 75 | |
| 20260904202924 | 61 | 253 | 10.0 | 16.0 | 0.00 | 0.29 | 0.28 | 75 | |
| 20260904202803 | 61 | 255 | 10.0 | 19.0 | 0.00 | 0.29 | 0.28 | 75 | |
| 20260904202703 | 61 | 255 | 10.0 | 19.0 | 0.00 | 0.29 | 0.28 | 75 | |
| 20260904202603 | 61 | 255 | 10.0 | 19.0 | 0.00 | 0.29 | 0.28 | 75 | |
| 20260904202503 | 61 | 255 | 10.0 | 19.0 | 0.00 | 0.29 | 0.28 | 75 | |
| 20260904202424 | 61 | 254 | 10.0 | 19.0 | 0.00 | 0.29 | 0.28 | 75 | |
| 20260904202305 | 61 | 253 | 10.0 | 19.0 | 0.00 | 0.29 | 0.28 | 75 | |
| 20260904202203 | 61 | 253 | 10.0 | 19.0 | 0.00 | 0.29 | 0.28 | 75 | |
| 20260904202124 | 61 | 253 | 10.0 | 19.0 | 0.00 | 0.29 | 0.28 | 75 | |
| 20260904202003 | 61 | 253 | 9.0 | 19.0 | 0.00 | 0.29 | 0.28 | 75 | |
| 20260904201902 | 61 | 255 | 9.0 | 19.0 | 0.00 | 0.29 | 0.28 | 75 | |
| 20260904201802 | 61 | 254 | 9.0 | 15.0 | 0.00 | 0.29 | 0.28 | 76 | |
| 20260904201702 | 61 | 254 | 8.0 | 15.0 | 0.00 | 0.29 | 0.28 | 76 | |
| 20260904201623 | 61 | 253 | 8.0 | 15.0 | 0.00 | 0.29 | 0.28 | 76 | |
| 20260904201502 | 61 | 254 | 8.0 | 14.0 | 0.00 | 0.29 | 0.28 | 76 | |
| 20260904201402 | 61 | 255 | 8.0 | 14.0 | 0.00 | 0.29 | 0.28 | 75 | |
| 20260904201303 | 61 | 255 | 7.0 | 14.0 | 0.00 | 0.29 | 0.28 | 76 | |
| 20260904201202 | 61 | 255 | 7.0 | 13.0 | 0.00 | 0.29 | 0.28 | 76 | |
| 20260904201123 | 61 | 255 | 7.0 | 13.0 | 0.00 | 0.29 | 0.28 | 76 | |
| 20260904201002 | 61 | 255 | 7.0 | 13.0 | 0.00 | 0.29 | 0.28 | 75 | |
| 20260904200902 | 61 | 253 | 8.0 | 13.0 | 0.00 | 0.29 | 0.28 | 75 | |
| 20260904200802 | 61 | 252 | 7.0 | 13.0 | 0.00 | 0.29 | 0.28 | 75 | |
| 20260904200702 | 61 | 252 | 7.0 | 11.0 | 0.00 | 0.29 | 0.28 | 75 | |
| 20260904200602 | 61 | 251 | 8.0 | 12.0 | 0.00 | 0.29 | 0.28 | 75 | |
| 20260904200503 | 61 | 249 | 7.0 | 12.0 | 0.00 | 0.29 | 0.28 | 75 | |
| 20260904200402 | 61 | 247 | 8.0 | 12.0 | 0.00 | 0.29 | 0.28 | 75 | |
| 20260904200323 | 61 | 246 | 8.0 | 12.0 | 0.00 | 0.29 | 0.28 | 75 | |
| 20260904200202 | 61 | 246 | 8.0 | 12.0 | 0.00 | 0.29 | 0.28 | 75 | |
| 20260904200002 | 61 | 242 | 8.0 | 12.0 | 0.00 | 0.29 | 0.28 | 75 | |
| 20260904195902 | 61 | 241 | 8.0 | 12.0 | 0.00 | 0.29 | 0.28 | 75 | |
| 20260904195802 | 61 | 241 | 8.0 | 12.0 | 0.00 | 0.29 | 0.28 | 75 | |
| 20260904195702 | 61 | 241 | 8.0 | 14.0 | 0.00 | 0.29 | 0.28 | 75 | |
| 20260904195602 | 61 | 240 | 9.0 | 14.0 | 0.00 | 0.29 | 0.28 | 75 | |
| 20260904195502 | 61 | 241 | 9.0 | 14.0 | 0.00 | 0.29 | 0.28 | 75 | |
| 20260904195423 | 61 | 241 | 9.0 | 14.0 | 0.00 | 0.29 | 0.28 | 75 | |
| 20260904195305 | 61 | 242 | 9.0 | 14.0 | 0.00 | 0.29 | 0.28 | 75 | |
| 20260904195202 | 61 | 242 | 9.0 | 14.0 | 0.00 | 0.29 | 0.28 | 75 | |
| 20260904195102 | 61 | 243 | 9.0 | 14.0 | 0.00 | 0.29 | 0.28 | 75 | |
| 20260904195002 | 61 | 244 | 9.0 | 14.0 | 0.00 | 0.29 | 0.28 | 75 | |
| 20260904194923 | 61 | 244 | 9.0 | 14.0 | 0.00 | 0.29 | 0.28 | 75 | |
| 20260904194802 | 61 | 246 | 9.0 | 14.0 | 0.00 | 0.29 | 0.28 | 75 | |
| 20260904194703 | 61 | 246 | 9.0 | 12.0 | 0.00 | 0.29 | 0.28 | 75 | |
| 20260904194602 | 61 | 247 | 9.0 | 12.0 | 0.00 | 0.29 | 0.28 | 75 | |
| 20260904194502 | 61 | 248 | 9.0 | 15.0 | 0.00 | 0.29 | 0.28 | 75 | |
| 20260904194423 | 61 | 249 | 9.0 | 15.0 | 0.00 | 0.29 | 0.28 | 75 | |
| 20260904194323 | 61 | 248 | 9.0 | 15.0 | 0.00 | 0.29 | 0.28 | 75 | |
| 20260904194202 | 61 | 249 | 10.0 | 15.0 | 0.00 | 0.29 | 0.28 | 74 | |
| 20260904194102 | 61 | 250 | 9.0 | 15.0 | 0.00 | 0.29 | 0.28 | 74 | |
| 20260904194002 | 61 | 250 | 10.0 | 15.0 | 0.00 | 0.29 | 0.28 | 74 | |
| 20260904193902 | 61 | 250 | 10.0 | 15.0 | 0.00 | 0.29 | 0.28 | 74 | |
| 20260904193823 | 61 | 251 | 10.0 | 15.0 | 0.00 | 0.29 | 0.28 | 74 | |
| 20260904193724 | 61 | 251 | 10.0 | 16.0 | 0.00 | 0.29 | 0.28 | 74 | |
| 20260904193602 | 61 | 252 | 10.0 | 16.0 | 0.00 | 0.29 | 0.28 | 74 | |
| 20260904193502 | 61 | 252 | 9.0 | 16.0 | 0.00 | 0.29 | 0.28 | 74 | |
| 20260904193402 | 61 | 253 | 10.0 | 16.0 | 0.00 | 0.29 | 0.28 | 74 | |
| 20260904193303 | 61 | 253 | 10.0 | 16.0 | 0.00 | 0.29 | 0.28 | 74 | |
| 20260904193202 | 61 | 254 | 10.0 | 16.0 | 0.00 | 0.29 | 0.28 | 74 | |
| 20260904193123 | 61 | 254 | 10.0 | 16.0 | 0.00 | 0.29 | 0.28 | 74 | |
| 20260904193003 | 61 | 254 | 10.0 | 16.0 | 0.00 | 0.29 | 0.28 | 74 | |
| 20260904192923 | 61 | 254 | 10.0 | 16.0 | 0.00 | 0.29 | 0.28 | 74 | |
| 20260904192823 | 61 | 254 | 10.0 | 16.0 | 0.00 | 0.29 | 0.28 | 74 | |
| 20260904192702 | 61 | 256 | 10.0 | 14.0 | 0.00 | 0.29 | 0.28 | 74 | |
| 20260904192623 | 61 | 256 | 10.0 | 14.0 | 0.00 | 0.29 | 0.28 | 74 | |
| 20260904192502 | 61 | 256 | 10.0 | 14.0 | 0.00 | 0.29 | 0.28 | 74 | |
| 20260904192402 | 61 | 257 | 10.0 | 14.0 | 0.00 | 0.29 | 0.28 | 74 | |
| 20260904192306 | 61 | 257 | 9.0 | 14.0 | 0.00 | 0.29 | 0.28 | 74 | |
| 20260904192223 | 61 | 256 | 9.0 | 14.0 | 0.00 | 0.29 | 0.28 | 74 | |
| 20260904192102 | 61 | 257 | 9.0 | 14.0 | 0.00 | 0.29 | 0.28 | 74 | |
| 20260904192023 | 61 | 257 | 9.0 | 14.0 | 0.00 | 0.29 | 0.28 | 74 | |
| 20260904191903 | 61 | 259 | 9.0 | 14.0 | 0.00 | 0.29 | 0.28 | 74 | |
| 20260904191802 | 61 | 260 | 10.0 | 15.0 | 0.00 | 0.29 | 0.28 | 74 | |
| 20260904191702 | 61 | 259 | 10.0 | 15.0 | 0.00 | 0.29 | 0.28 | 73 | |
| 20260904191602 | 61 | 260 | 10.0 | 15.0 | 0.00 | 0.29 | 0.28 | 73 | |
| 20260904191502 | 61 | 261 | 10.0 | 19.0 | 0.00 | 0.29 | 0.28 | 73 | |
| 20260904191402 | 61 | 260 | 10.0 | 19.0 | 0.00 | 0.29 | 0.28 | 73 | |
| 20260904191302 | 61 | 261 | 10.0 | 19.0 | 0.00 | 0.29 | 0.28 | 73 | |
| 20260904191202 | 61 | 262 | 11.0 | 19.0 | 0.00 | 0.29 | 0.28 | 73 | |
| 20260904191102 | 61 | 263 | 11.0 | 19.0 | 0.00 | 0.29 | 0.28 | 73 | |
| 20260904191023 | 61 | 264 | 11.0 | 19.0 | 0.00 | 0.29 | 0.28 | 73 | |
| 20260904190902 | 61 | 265 | 11.0 | 19.0 | 0.00 | 0.29 | 0.28 | 73 | |
| 20260904190802 | 61 | 266 | 11.0 | 19.0 | 0.00 | 0.29 | 0.28 | 73 | |
| 20260904190702 | 61 | 267 | 11.0 | 19.0 | 0.00 | 0.29 | 0.28 | 73 | |
| 20260904190602 | 61 | 267 | 11.0 | 19.0 | 0.00 | 0.29 | 0.28 | 73 | |
| 20260904190502 | 61 | 268 | 11.0 | 16.0 | 0.00 | 0.29 | 0.28 | 73 | |
| 20260904190423 | 61 | 268 | 11.0 | 16.0 | 0.00 | 0.29 | 0.28 | 73 | |
| 20260904190302 | 61 | 269 | 11.0 | 16.0 | 0.00 | 0.29 | 0.28 | 73 | |
| 20260904190202 | 61 | 270 | 11.0 | 16.0 | 0.00 | 0.29 | 0.28 | 73 | |
| 20260904190002 | 61 | 270 | 11.0 | 18.0 | 0.00 | 0.29 | 0.28 | 73 | |
| 20260904185902 | 61 | 269 | 11.0 | 18.0 | 0.00 | 0.29 | 0.28 | 73 | |
| 20260904185802 | 61 | 269 | 11.0 | 18.0 | 0.00 | 0.29 | 0.28 | 73 | |
| 20260904185702 | 61 | 268 | 11.0 | 18.0 | 0.00 | 0.29 | 0.28 | 73 | |
| 20260904185602 | 61 | 268 | 11.0 | 18.0 | 0.00 | 0.29 | 0.28 | 73 | |
| 20260904185523 | 61 | 267 | 11.0 | 18.0 | 0.00 | 0.29 | 0.28 | 73 | |
| 20260904185402 | 61 | 267 | 11.0 | 19.0 | 0.00 | 0.29 | 0.28 | 73 | |
| 20260904185306 | 61 | 266 | 11.0 | 19.0 | 0.00 | 0.29 | 0.28 | 73 | |
| 20260904185202 | 61 | 266 | 11.0 | 19.0 | 0.00 | 0.29 | 0.28 | 73 | |
| 20260904185102 | 61 | 266 | 12.0 | 19.0 | 0.00 | 0.29 | 0.28 | 73 | |
| 20260904185023 | 61 | 266 | 12.0 | 19.0 | 0.00 | 0.29 | 0.28 | 73 | |
| 20260904184902 | 61 | 266 | 12.0 | 19.0 | 0.00 | 0.29 | 0.28 | 73 | |
| 20260904184803 | 61 | 265 | 12.0 | 19.0 | 0.00 | 0.29 | 0.28 | 73 | |
| 20260904184703 | 61 | 265 | 12.0 | 19.0 | 0.00 | 0.29 | 0.28 | 73 | |
| 20260904184602 | 61 | 265 | 12.0 | 19.0 | 0.00 | 0.29 | 0.28 | 73 | |
| 20260904184502 | 61 | 266 | 12.0 | 19.0 | 0.00 | 0.29 | 0.28 | 73 | |
| 20260904184402 | 61 | 265 | 12.0 | 19.0 | 0.00 | 0.29 | 0.28 | 73 | |
| 20260904184302 | 61 | 265 | 12.0 | 19.0 | 0.00 | 0.29 | 0.28 | 73 | |
| 20260904184223 | 61 | 266 | 12.0 | 19.0 | 0.00 | 0.29 | 0.28 | 73 | |
| 20260904184102 | 61 | 266 | 13.0 | 21.0 | 0.00 | 0.29 | 0.28 | 72 | |
| 20260904184002 | 61 | 266 | 13.0 | 22.0 | 0.00 | 0.29 | 0.28 | 72 | |
| 20260904183902 | 61 | 266 | 13.0 | 22.0 | 0.00 | 0.29 | 0.28 | 72 | |
| 20260904183802 | 61 | 266 | 13.0 | 22.0 | 0.00 | 0.29 | 0.28 | 72 | |
| 20260904183702 | 62 | 266 | 14.0 | 22.0 | 0.00 | 0.29 | 0.28 | 72 | |
| 20260904183623 | 62 | 266 | 14.0 | 22.0 | 0.00 | 0.29 | 0.28 | 72 | |
| 20260904183502 | 62 | 265 | 13.0 | 22.0 | 0.00 | 0.29 | 0.28 | 72 | |
| 20260904183402 | 62 | 266 | 13.0 | 22.0 | 0.00 | 0.29 | 0.28 | 72 | |
| 20260904183302 | 62 | 267 | 13.0 | 22.0 | 0.00 | 0.29 | 0.28 | 72 | |
| 20260904183202 | 62 | 267 | 13.0 | 22.0 | 0.00 | 0.29 | 0.28 | 72 | |
| 20260904183102 | 62 | 268 | 13.0 | 22.0 | 0.00 | 0.29 | 0.28 | 72 | |
| 20260904183002 | 62 | 268 | 13.0 | 21.0 | 0.00 | 0.29 | 0.28 | 72 | |
| 20260904182902 | 62 | 269 | 13.0 | 21.0 | 0.00 | 0.29 | 0.28 | 72 | |
| 20260904182802 | 62 | 271 | 13.0 | 21.0 | 0.00 | 0.29 | 0.28 | 71 | |
| 20260904182702 | 62 | 272 | 13.0 | 21.0 | 0.00 | 0.29 | 0.28 | 71 | |
| 20260904182602 | 62 | 274 | 13.0 | 21.0 | 0.00 | 0.29 | 0.28 | 71 | |
| 20260904182502 | 62 | 274 | 13.0 | 21.0 | 0.00 | 0.29 | 0.28 | 71 | |
| 20260904182402 | 62 | 274 | 13.0 | 21.0 | 0.00 | 0.29 | 0.28 | 71 | |
| 20260904182306 | 62 | 275 | 13.0 | 21.0 | 0.00 | 0.29 | 0.28 | 71 | |
| 20260904182223 | 62 | 275 | 13.0 | 21.0 | 0.00 | 0.29 | 0.28 | 71 | |
| 20260904182102 | 62 | 276 | 13.0 | 21.0 | 0.00 | 0.29 | 0.28 | 71 | |
| 20260904182023 | 62 | 276 | 13.0 | 21.0 | 0.00 | 0.29 | 0.28 | 71 | |
| 20260904181902 | 62 | 277 | 13.0 | 21.0 | 0.00 | 0.29 | 0.28 | 70 | |
| 20260904181802 | 62 | 277 | 13.0 | 21.0 | 0.00 | 0.29 | 0.28 | 70 | |
| 20260904181702 | 62 | 276 | 13.0 | 21.0 | 0.00 | 0.29 | 0.28 | 70 | |
| 20260904181623 | 62 | 276 | 13.0 | 21.0 | 0.00 | 0.29 | 0.28 | 70 | |
| 20260904181502 | 62 | 276 | 12.0 | 21.0 | 0.00 | 0.29 | 0.28 | 70 | |
| 20260904181402 | 62 | 277 | 12.0 | 21.0 | 0.00 | 0.29 | 0.28 | 70 | |
| 20260904181302 | 62 | 276 | 12.0 | 19.0 | 0.00 | 0.29 | 0.28 | 70 | |
| 20260904181224 | 62 | 276 | 12.0 | 19.0 | 0.00 | 0.29 | 0.28 | 70 | |
| 20260904181102 | 62 | 275 | 12.0 | 20.0 | 0.00 | 0.29 | 0.28 | 70 |